Time,TemperatureF,DewpointF,PressureIn,WindDirection,WindDirectionDegrees,WindSpeedMPH,WindSpeedGustMPH,Humidity,HourlyPrecipIn,Conditions,Clouds,dailyrainin,SoftwareType,DateUTC
2013-10-07 00:02:00,48.4,45.9,29.06,West,280,0.0,0.0,91,0.00,,,0.00,VWS V13.01,2013-10-07 05:02:00,
2013-10-07 00:03:00,48.2,45.7,29.06,West,280,0.0,0.0,91,0.00,,,0.00,VWS V13.01,2013-10-07 05:03:00,
2013-10-07 00:07:00,48.0,45.5,29.06,West,280,0.0,0.0,91,0.00,,,0.00,VWS V13.01,2013-10-07 05:07:00,
2013-10-07 00:08:00,48.0,45.5,29.06,West,280,0.0,0.0,91,0.00,,,0.00,VWS V13.01,2013-10-07 05:08:00,
2013-10-07 00:09:00,48.0,45.5,29.06,West,280,0.0,0.0,91,0.00,,,0.00,VWS V13.01,2013-10-07 05:09:00,
2013-10-07 00:12:00,47.8,45.3,29.06,West,280,0.0,0.0,91,0.00,,,0.00,VWS V13.01,2013-10-07 05:12:00,
2013-10-07 00:13:00,47.8,45.3,29.06,West,280,0.0,0.0,91,0.00,,,0.00,VWS V13.01,2013-10-07 05:13:00,
2013-10-07 00:14:00,47.8,45.3,29.06,West,280,0.0,0.0,91,0.00,,,0.00,VWS V13.01,2013-10-07 05:14:00,
2013-10-07 00:17:00,47.8,47.8,29.06,WNW,300,0.0,0.0,100,0.00,,,0.00,VWS V13.01,2013-10-07 05:17:00,
2013-10-07 00:18:00,47.8,47.8,29.06,NW,315,0.0,0.0,100,0.00,,,0.00,VWS V13.01,2013-10-07 05:18:00,
2013-10-07 00:19:00,47.8,47.8,29.06,NW,320,0.0,0.0,100,0.00,,,0.00,VWS V13.01,2013-10-07 05:19:00,
2013-10-07 00:22:00,47.7,45.2,29.06,NW,320,0.0,0.0,91,0.00,,,0.00,VWS V13.01,2013-10-07 05:22:00,
2013-10-07 00:23:00,47.7,47.7,29.06,NW,320,0.0,0.0,100,0.00,,,0.00,VWS V13.01,2013-10-07 05:23:00,
2013-10-07 00:24:00,47.5,47.5,29.06,NW,320,0.0,0.0,100,0.00,,,0.00,VWS V13.01,2013-10-07 05:24:00,
2013-10-07 00:28:00,47.3,47.3,29.06,WNW,288,0.0,0.0,100,0.00,,,0.00,VWS V13.01,2013-10-07 05:28:00,
2013-10-07 00:29:00,47.3,47.3,29.06,WNW,288,0.0,0.0,100,0.00,,,0.00,VWS V13.01,2013-10-07 05:29:00,
2013-10-07 00:30:00,47.3,47.3,29.06,WNW,288,0.0,0.0,100,0.00,,,0.00,VWS V13.01,2013-10-07 05:30:00,
2013-10-07 00:32:00,47.1,47.1,29.06,WNW,288,0.0,0.0,100,0.00,,,0.00,VWS V13.01,2013-10-07 05:32:00,
2013-10-07 00:33:00,47.1,47.1,29.06,WNW,288,0.0,0.0,100,0.00,,,0.00,VWS V13.01,2013-10-07 05:33:00,
2013-10-07 00:34:00,47.1,47.1,29.06,WNW,288,0.0,0.0,100,0.00,,,0.00,VWS V13.01,2013-10-07 05:34:00,
2013-10-07 00:36:00,47.1,47.1,29.06,WNW,288,0.0,0.0,100,0.00,,,0.00,VWS V13.01,2013-10-07 05:36:00,
2013-10-07 00:38:00,47.1,47.1,29.06,WNW,288,0.0,0.0,100,0.00,,,0.00,VWS V13.01,2013-10-07 05:38:00,
2013-10-07 00:39:00,46.9,46.9,29.03,WNW,288,0.0,0.0,100,0.00,,,0.00,VWS V13.01,2013-10-07 05:39:00,
2013-10-07 00:41:00,46.9,46.9,29.03,WNW,288,0.0,0.0,100,0.00,,,0.00,VWS V13.01,2013-10-07 05:41:00,
2013-10-07 00:43:00,46.8,46.8,29.03,WNW,288,0.0,0.0,100,0.00,,,0.00,VWS V13.01,2013-10-07 05:43:00,
2013-10-07 00:44:00,46.8,46.8,29.03,WNW,288,0.0,0.0,100,0.00,,,0.00,VWS V13.01,2013-10-07 05:44:00,
2013-10-07 00:45:00,46.8,46.8,29.03,WNW,288,0.0,0.0,100,0.00,,,0.00,VWS V13.01,2013-10-07 05:45:00,
2013-10-07 00:46:00,46.8,46.8,29.03,WNW,288,0.0,0.0,100,0.00,,,0.00,VWS V13.01,2013-10-07 05:46:00,
2013-10-07 00:48:00,46.6,46.6,29.03,WNW,288,0.0,0.0,100,0.00,,,0.00,VWS V13.01,2013-10-07 05:48:00,
2013-10-07 00:50:00,46.6,46.6,29.03,WNW,288,0.0,0.0,100,0.00,,,0.00,VWS V13.01,2013-10-07 05:50:00,
2013-10-07 00:51:00,46.4,46.4,29.03,WNW,288,0.0,0.0,100,0.00,,,0.00,VWS V13.01,2013-10-07 05:51:00,
2013-10-07 00:53:00,46.4,46.4,29.03,WNW,288,0.0,0.0,100,0.00,,,0.00,VWS V13.01,2013-10-07 05:53:00,
2013-10-07 00:55:00,46.0,46.0,29.03,WNW,288,0.0,0.0,100,0.00,,,0.00,VWS V13.01,2013-10-07 05:55:00,
2013-10-07 00:56:00,46.0,46.0,29.03,WNW,288,0.0,0.0,100,0.00,,,0.00,VWS V13.01,2013-10-07 05:56:00,
2013-10-07 00:58:00,46.0,46.0,29.03,WNW,288,0.0,0.0,100,0.00,,,0.00,VWS V13.01,2013-10-07 05:58:00,
2013-10-07 01:00:00,46.0,46.0,29.03,WNW,288,0.0,0.0,100,0.00,,,0.00,VWS V13.01,2013-10-07 06:00:00,
2013-10-07 01:01:00,45.9,45.9,29.03,WNW,288,0.0,0.0,100,0.00,,,0.00,VWS V13.01,2013-10-07 06:01:00,
2013-10-07 01:03:00,45.9,45.9,29.03,WNW,288,0.0,0.0,100,0.00,,,0.00,VWS V13.01,2013-10-07 06:03:00,
2013-10-07 01:05:00,46.0,46.0,29.03,WNW,288,0.0,0.0,100,0.00,,,0.00,VWS V13.01,2013-10-07 06:05:00,
2013-10-07 01:06:00,45.9,45.9,29.03,WNW,288,0.0,0.0,100,0.00,,,0.00,VWS V13.01,2013-10-07 06:06:00,
2013-10-07 01:08:00,46.0,46.0,29.03,WSW,250,0.0,0.0,100,0.00,,,0.00,VWS V13.01,2013-10-07 06:08:00,
2013-10-07 01:10:00,46.0,46.0,29.03,WNW,292,0.0,0.0,100,0.00,,,0.00,VWS V13.01,2013-10-07 06:10:00,
2013-10-07 01:11:00,46.0,46.0,29.03,WNW,292,0.0,0.0,100,0.00,,,0.00,VWS V13.01,2013-10-07 06:11:00,
2013-10-07 01:13:00,46.0,46.0,29.03,WNW,292,0.0,0.0,100,0.00,,,0.00,VWS V13.01,2013-10-07 06:13:00,
2013-10-07 01:15:00,45.9,45.9,29.03,WSW,243,0.0,0.0,100,0.00,,,0.00,VWS V13.01,2013-10-07 06:15:00,
2013-10-07 01:16:00,45.9,45.9,29.03,WSW,243,0.0,0.0,100,0.00,,,0.00,VWS V13.01,2013-10-07 06:16:00,
2013-10-07 01:18:00,45.9,45.9,29.03,NW,305,0.0,0.0,100,0.00,,,0.00,VWS V13.01,2013-10-07 06:18:00,
2013-10-07 01:19:00,45.9,45.9,29.03,WNW,302,0.0,0.0,100,0.00,,,0.00,VWS V13.01,2013-10-07 06:19:00,
2013-10-07 01:20:00,45.9,45.9,29.03,WNW,302,0.0,0.0,100,0.00,,,0.00,VWS V13.01,2013-10-07 06:20:00,
2013-10-07 01:21:00,45.9,45.9,29.03,WNW,302,0.0,0.0,100,0.00,,,0.00,VWS V13.01,2013-10-07 06:21:00,
2013-10-07 01:22:00,45.9,45.9,29.03,WNW,302,0.0,0.0,100,0.00,,,0.00,VWS V13.01,2013-10-07 06:22:00,
2013-10-07 01:23:00,45.7,45.7,29.03,WNW,302,0.0,0.0,100,0.00,,,0.00,VWS V13.01,2013-10-07 06:23:00,
2013-10-07 01:24:00,45.7,45.7,29.03,WNW,302,0.0,0.0,100,0.00,,,0.00,VWS V13.01,2013-10-07 06:24:00,
2013-10-07 01:25:00,45.7,45.7,29.03,WNW,302,0.0,0.0,100,0.00,,,0.00,VWS V13.01,2013-10-07 06:25:00,
2013-10-07 01:26:00,45.7,45.7,29.03,WNW,302,0.0,0.0,100,0.00,,,0.00,VWS V13.01,2013-10-07 06:26:00,
2013-10-07 01:27:00,45.7,45.7,29.03,WNW,302,0.0,0.0,100,0.00,,,0.00,VWS V13.01,2013-10-07 06:27:00,
2013-10-07 01:28:00,45.7,45.7,29.03,WNW,302,0.0,0.0,100,0.00,,,0.00,VWS V13.01,2013-10-07 06:28:00,
2013-10-07 01:29:00,45.7,45.7,29.03,WNW,302,0.0,0.0,100,0.00,,,0.00,VWS V13.01,2013-10-07 06:29:00,
2013-10-07 01:30:00,45.7,45.7,29.03,WNW,302,0.0,0.0,100,0.00,,,0.00,VWS V13.01,2013-10-07 06:30:00,
2013-10-07 01:31:00,45.7,45.7,29.03,WNW,302,0.0,0.0,100,0.00,,,0.00,VWS V13.01,2013-10-07 06:31:00,
2013-10-07 01:33:00,45.7,45.7,29.03,WNW,302,0.0,0.0,100,0.00,,,0.00,VWS V13.01,2013-10-07 06:33:00,
2013-10-07 01:34:00,45.7,45.7,29.03,WNW,302,0.0,0.0,100,0.00,,,0.00,VWS V13.01,2013-10-07 06:34:00,
2013-10-07 01:36:00,45.7,45.7,29.03,WNW,302,0.0,0.0,100,0.00,,,0.00,VWS V13.01,2013-10-07 06:36:00,
2013-10-07 01:37:00,45.7,45.7,29.03,WNW,302,0.0,0.0,100,0.00,,,0.00,VWS V13.01,2013-10-07 06:37:00,
2013-10-07 01:38:00,45.7,45.7,29.03,WNW,302,0.0,0.0,100,0.00,,,0.00,VWS V13.01,2013-10-07 06:38:00,
2013-10-07 01:39:00,45.7,45.7,29.03,WNW,302,0.0,0.0,100,0.00,,,0.00,VWS V13.01,2013-10-07 06:39:00,
2013-10-07 01:41:00,45.5,45.5,29.06,WNW,302,0.0,0.0,100,0.00,,,0.00,VWS V13.01,2013-10-07 06:41:00,
2013-10-07 01:42:00,45.5,45.5,29.06,WNW,302,0.0,0.0,100,0.00,,,0.00,VWS V13.01,2013-10-07 06:42:00,
2013-10-07 01:43:00,45.5,45.5,29.06,WNW,302,0.0,0.0,100,0.00,,,0.00,VWS V13.01,2013-10-07 06:43:00,
2013-10-07 01:44:00,45.5,45.5,29.06,WNW,302,0.0,0.0,100,0.00,,,0.00,VWS V13.01,2013-10-07 06:44:00,
2013-10-07 01:46:00,45.3,45.3,29.06,WNW,302,0.0,0.0,100,0.00,,,0.00,VWS V13.01,2013-10-07 06:46:00,
2013-10-07 01:47:00,45.3,45.3,29.06,WNW,302,0.0,0.0,100,0.00,,,0.00,VWS V13.01,2013-10-07 06:47:00,
2013-10-07 01:49:00,45.1,45.1,29.06,WNW,302,0.0,0.0,100,0.00,,,0.00,VWS V13.01,2013-10-07 06:49:00,
2013-10-07 01:51:00,45.1,45.1,29.06,WNW,302,0.0,0.0,100,0.00,,,0.00,VWS V13.01,2013-10-07 06:51:00,
2013-10-07 01:52:00,45.1,45.1,29.06,WNW,302,0.0,0.0,100,0.00,,,0.00,VWS V13.01,2013-10-07 06:52:00,
2013-10-07 01:54:00,44.8,44.8,29.06,WNW,302,0.0,0.0,100,0.00,,,0.00,VWS V13.01,2013-10-07 06:54:00,
2013-10-07 01:56:00,44.8,44.8,29.06,WNW,302,0.0,0.0,100,0.00,,,0.00,VWS V13.01,2013-10-07 06:56:00,
2013-10-07 01:57:00,44.8,44.8,29.06,WNW,302,0.0,0.0,100,0.00,,,0.00,VWS V13.01,2013-10-07 06:57:00,
2013-10-07 01:59:00,44.8,44.8,29.06,WNW,302,0.0,0.0,100,0.00,,,0.00,VWS V13.01,2013-10-07 06:59:00,
2013-10-07 02:01:00,44.8,44.8,29.06,WNW,302,0.0,0.0,100,0.00,,,0.00,VWS V13.01,2013-10-07 07:01:00,
2013-10-07 02:02:00,44.8,44.8,29.06,WNW,302,0.0,0.0,100,0.00,,,0.00,VWS V13.01,2013-10-07 07:02:00,
2013-10-07 02:04:00,44.8,44.8,29.06,WNW,302,0.0,0.0,100,0.00,,,0.00,VWS V13.01,2013-10-07 07:04:00,
2013-10-07 02:05:00,44.6,44.6,29.06,WNW,302,0.0,0.0,100,0.00,,,0.00,VWS V13.01,2013-10-07 07:05:00,
2013-10-07 02:06:00,44.6,44.6,29.06,WNW,302,0.0,0.0,100,0.00,,,0.00,VWS V13.01,2013-10-07 07:06:00,
2013-10-07 02:07:00,44.6,44.6,29.06,WNW,302,0.0,0.0,100,0.00,,,0.00,VWS V13.01,2013-10-07 07:07:00,
2013-10-07 02:09:00,44.6,44.6,29.06,WNW,302,0.0,0.0,100,0.00,,,0.00,VWS V13.01,2013-10-07 07:09:00,
2013-10-07 02:10:00,44.6,44.6,29.06,WNW,302,0.0,0.0,100,0.00,,,0.00,VWS V13.01,2013-10-07 07:10:00,
2013-10-07 02:11:00,44.4,44.4,29.06,WNW,302,0.0,0.0,100,0.00,,,0.00,VWS V13.01,2013-10-07 07:11:00,
2013-10-07 02:12:00,44.4,44.4,29.06,WNW,302,0.0,0.0,100,0.00,,,0.00,VWS V13.01,2013-10-07 07:12:00,
2013-10-07 02:14:00,44.2,44.2,29.06,WNW,302,0.0,0.0,100,0.00,,,0.00,VWS V13.01,2013-10-07 07:14:00,
2013-10-07 02:15:00,44.2,44.2,29.06,WNW,302,0.0,0.0,100,0.00,,,0.00,VWS V13.01,2013-10-07 07:15:00,
2013-10-07 02:16:00,44.2,44.2,29.06,WNW,302,0.0,0.0,100,0.00,,,0.00,VWS V13.01,2013-10-07 07:16:00,
2013-10-07 02:17:00,44.2,44.2,29.06,WNW,302,0.0,0.0,100,0.00,,,0.00,VWS V13.01,2013-10-07 07:17:00,
2013-10-07 02:19:00,44.2,44.2,29.06,WNW,302,0.0,0.0,100,0.00,,,0.00,VWS V13.01,2013-10-07 07:19:00,
2013-10-07 02:20:00,44.2,44.2,29.06,WNW,302,0.0,0.0,100,0.00,,,0.00,VWS V13.01,2013-10-07 07:20:00,
2013-10-07 02:22:00,44.1,44.1,29.06,WNW,302,0.0,0.0,100,0.00,,,0.00,VWS V13.01,2013-10-07 07:22:00,
2013-10-07 02:24:00,43.9,43.9,29.06,WNW,302,0.0,0.0,100,0.00,,,0.00,VWS V13.01,2013-10-07 07:24:00,
2013-10-07 02:25:00,43.7,43.7,29.06,WNW,302,0.0,0.0,100,0.00,,,0.00,VWS V13.01,2013-10-07 07:25:00,
2013-10-07 02:27:00,43.7,43.7,29.06,WNW,302,0.0,0.0,100,0.00,,,0.00,VWS V13.01,2013-10-07 07:27:00,
2013-10-07 02:28:00,43.7,43.7,29.06,WNW,302,0.0,0.0,100,0.00,,,0.00,VWS V13.01,2013-10-07 07:28:00,
2013-10-07 02:29:00,43.7,43.7,29.06,WNW,302,0.0,0.0,100,0.00,,,0.00,VWS V13.01,2013-10-07 07:29:00,
2013-10-07 02:30:00,43.5,43.5,29.06,WNW,302,0.0,0.0,100,0.00,,,0.00,VWS V13.01,2013-10-07 07:30:00,
2013-10-07 02:31:00,43.5,43.5,29.06,WNW,302,0.0,0.0,100,0.00,,,0.00,VWS V13.01,2013-10-07 07:31:00,
2013-10-07 02:32:00,43.3,43.3,29.06,WNW,302,0.0,0.0,100,0.00,,,0.00,VWS V13.01,2013-10-07 07:32:00,
2013-10-07 02:33:00,43.3,43.3,29.06,WNW,302,0.0,0.0,100,0.00,,,0.00,VWS V13.01,2013-10-07 07:33:00,
2013-10-07 02:35:00,43.3,43.3,29.06,WNW,302,0.0,0.0,100,0.00,,,0.00,VWS V13.01,2013-10-07 07:35:00,
2013-10-07 02:36:00,43.3,43.3,29.06,WNW,302,0.0,0.0,100,0.00,,,0.00,VWS V13.01,2013-10-07 07:36:00,
2013-10-07 02:37:00,43.3,43.3,29.06,WNW,302,0.0,0.0,100,0.00,,,0.00,VWS V13.01,2013-10-07 07:37:00,
2013-10-07 02:39:00,43.5,43.5,29.06,WNW,302,0.0,0.0,100,0.00,,,0.00,VWS V13.01,2013-10-07 07:39:00,
2013-10-07 02:40:00,43.5,43.5,29.06,WNW,302,0.0,0.0,100,0.00,,,0.00,VWS V13.01,2013-10-07 07:40:00,
2013-10-07 02:42:00,43.5,43.5,29.06,WNW,302,0.0,0.0,100,0.00,,,0.00,VWS V13.01,2013-10-07 07:42:00,
2013-10-07 02:44:00,43.5,43.5,29.06,WNW,302,0.0,0.0,100,0.00,,,0.00,VWS V13.01,2013-10-07 07:44:00,
2013-10-07 02:45:00,43.5,43.5,29.06,WNW,302,0.0,0.0,100,0.00,,,0.00,VWS V13.01,2013-10-07 07:45:00,
2013-10-07 02:47:00,43.3,43.3,29.06,WNW,302,0.0,0.0,100,0.00,,,0.00,VWS V13.01,2013-10-07 07:47:00,
2013-10-07 02:48:00,43.3,43.3,29.06,WNW,302,0.0,0.0,100,0.00,,,0.00,VWS V13.01,2013-10-07 07:48:00,
2013-10-07 02:49:00,43.3,43.3,29.06,WNW,302,0.0,0.0,100,0.00,,,0.00,VWS V13.01,2013-10-07 07:49:00,
2013-10-07 02:50:00,43.3,43.3,29.06,WNW,302,0.0,0.0,100,0.00,,,0.00,VWS V13.01,2013-10-07 07:50:00,
2013-10-07 02:52:00,43.2,43.2,29.06,WNW,302,0.0,0.0,100,0.00,,,0.00,VWS V13.01,2013-10-07 07:52:00,
2013-10-07 02:54:00,43.2,43.2,29.06,WNW,302,0.0,0.0,100,0.00,,,0.00,VWS V13.01,2013-10-07 07:54:00,
2013-10-07 02:55:00,43.3,43.3,29.06,WNW,302,0.0,0.0,100,0.00,,,0.00,VWS V13.01,2013-10-07 07:55:00,
2013-10-07 02:58:00,43.3,43.3,29.06,WNW,302,0.0,0.0,100,0.00,,,0.00,VWS V13.01,2013-10-07 07:58:00,
2013-10-07 02:59:00,43.3,43.3,29.06,WNW,302,0.0,0.0,100,0.00,,,0.00,VWS V13.01,2013-10-07 07:59:00,
2013-10-07 03:00:00,43.2,43.2,29.06,WNW,302,0.0,0.0,100,0.00,,,0.00,VWS V13.01,2013-10-07 08:00:00,
2013-10-07 03:03:00,43.5,43.5,29.06,WNW,302,0.0,0.0,100,0.00,,,0.00,VWS V13.01,2013-10-07 08:03:00,
2013-10-07 03:04:00,43.5,43.5,29.06,WNW,302,0.0,0.0,100,0.00,,,0.00,VWS V13.01,2013-10-07 08:04:00,
2013-10-07 03:05:00,43.5,43.5,29.06,WNW,302,0.0,0.0,100,0.00,,,0.00,VWS V13.01,2013-10-07 08:05:00,
2013-10-07 03:08:00,43.5,43.5,29.06,WNW,302,0.0,0.0,100,0.00,,,0.00,VWS V13.01,2013-10-07 08:08:00,
2013-10-07 03:09:00,43.5,43.5,29.06,WNW,302,0.0,0.0,100,0.00,,,0.00,VWS V13.01,2013-10-07 08:09:00,
2013-10-07 03:10:00,43.7,43.7,29.06,WNW,302,0.0,0.0,100,0.00,,,0.00,VWS V13.01,2013-10-07 08:10:00,
2013-10-07 03:11:00,43.7,43.7,29.06,WNW,302,0.0,0.0,100,0.00,,,0.00,VWS V13.01,2013-10-07 08:11:00,
2013-10-07 03:13:00,43.9,43.9,29.06,WNW,302,0.0,0.0,100,0.00,,,0.00,VWS V13.01,2013-10-07 08:13:00,
2013-10-07 03:14:00,43.9,43.9,29.06,WNW,302,0.0,0.0,100,0.00,,,0.00,VWS V13.01,2013-10-07 08:14:00,
2013-10-07 03:15:00,44.1,44.1,29.06,WNW,302,0.0,0.0,100,0.00,,,0.00,VWS V13.01,2013-10-07 08:15:00,
2013-10-07 03:16:00,44.1,44.1,29.06,WNW,302,0.0,0.0,100,0.00,,,0.00,VWS V13.01,2013-10-07 08:16:00,
2013-10-07 03:19:00,43.9,43.9,29.06,WNW,302,0.0,0.0,100,0.00,,,0.00,VWS V13.01,2013-10-07 08:19:00,
2013-10-07 03:20:00,43.9,43.9,29.06,WNW,302,0.0,0.0,100,0.00,,,0.00,VWS V13.01,2013-10-07 08:20:00,
2013-10-07 03:21:00,43.9,43.9,29.06,WNW,302,0.0,0.0,100,0.00,,,0.00,VWS V13.01,2013-10-07 08:21:00,
2013-10-07 03:24:00,43.7,43.7,29.06,WNW,302,0.0,0.0,100,0.00,,,0.00,VWS V13.01,2013-10-07 08:24:00,
2013-10-07 03:25:00,43.7,43.7,29.06,WNW,302,0.0,0.0,100,0.00,,,0.00,VWS V13.01,2013-10-07 08:25:00,
2013-10-07 03:26:00,43.7,43.7,29.06,WNW,302,0.0,0.0,100,0.00,,,0.00,VWS V13.01,2013-10-07 08:26:00,
2013-10-07 03:29:00,43.5,43.5,29.06,WNW,302,0.0,0.0,100,0.00,,,0.00,VWS V13.01,2013-10-07 08:29:00,
2013-10-07 03:30:00,43.5,43.5,29.06,WNW,302,0.0,0.0,100,0.00,,,0.00,VWS V13.01,2013-10-07 08:30:00,
2013-10-07 03:31:00,43.5,43.5,29.06,WNW,302,0.0,0.0,100,0.00,,,0.00,VWS V13.01,2013-10-07 08:31:00,
2013-10-07 03:34:00,43.3,43.3,29.06,WNW,302,0.0,0.0,100,0.00,,,0.00,VWS V13.01,2013-10-07 08:34:00,
2013-10-07 03:35:00,43.3,43.3,29.06,WNW,302,0.0,0.0,100,0.00,,,0.00,VWS V13.01,2013-10-07 08:35:00,
2013-10-07 03:36:00,43.3,43.3,29.06,WNW,302,0.0,0.0,100,0.00,,,0.00,VWS V13.01,2013-10-07 08:36:00,
2013-10-07 03:39:00,43.2,43.2,29.06,WNW,302,0.0,0.0,100,0.00,,,0.00,VWS V13.01,2013-10-07 08:39:00,
2013-10-07 03:40:00,43.2,43.2,29.06,WNW,302,0.0,0.0,100,0.00,,,0.00,VWS V13.01,2013-10-07 08:40:00,
2013-10-07 03:41:00,43.0,43.0,29.06,WNW,302,0.0,0.0,100,0.00,,,0.00,VWS V13.01,2013-10-07 08:41:00,
2013-10-07 03:44:00,42.8,42.8,29.06,WNW,302,0.0,0.0,100,0.00,,,0.00,VWS V13.01,2013-10-07 08:44:00,
2013-10-07 03:45:00,42.8,42.8,29.06,WNW,302,0.0,0.0,100,0.00,,,0.00,VWS V13.01,2013-10-07 08:45:00,
2013-10-07 03:46:00,42.8,42.8,29.06,WNW,302,0.0,0.0,100,0.00,,,0.00,VWS V13.01,2013-10-07 08:46:00,
2013-10-07 03:49:00,42.8,42.8,29.06,WNW,302,0.0,0.0,100,0.00,,,0.00,VWS V13.01,2013-10-07 08:49:00,
2013-10-07 03:50:00,42.8,42.8,29.06,WNW,302,0.0,0.0,100,0.00,,,0.00,VWS V13.01,2013-10-07 08:50:00,
2013-10-07 03:51:00,42.8,42.8,29.06,WNW,302,0.0,0.0,100,0.00,,,0.00,VWS V13.01,2013-10-07 08:51:00,
2013-10-07 03:54:00,42.6,42.6,29.03,WNW,302,0.0,0.0,100,0.00,,,0.00,VWS V13.01,2013-10-07 08:54:00,
2013-10-07 03:55:00,42.6,42.6,29.03,WNW,302,0.0,0.0,100,0.00,,,0.00,VWS V13.01,2013-10-07 08:55:00,
2013-10-07 03:56:00,42.6,42.6,29.03,WNW,302,0.0,0.0,100,0.00,,,0.00,VWS V13.01,2013-10-07 08:56:00,
2013-10-07 03:59:00,42.6,42.6,29.03,WNW,302,0.0,0.0,100,0.00,,,0.00,VWS V13.01,2013-10-07 08:59:00,
2013-10-07 04:01:00,42.6,42.6,29.03,WNW,302,0.0,0.0,100,0.00,,,0.00,VWS V13.01,2013-10-07 09:01:00,
2013-10-07 04:05:00,42.6,42.6,29.03,WNW,302,0.0,0.0,100,0.00,,,0.00,VWS V13.01,2013-10-07 09:05:00,
2013-10-07 04:06:00,42.6,42.6,29.03,WNW,302,0.0,0.0,100,0.00,,,0.00,VWS V13.01,2013-10-07 09:06:00,
2013-10-07 04:07:00,42.6,42.6,29.03,WNW,302,0.0,0.0,100,0.00,,,0.00,VWS V13.01,2013-10-07 09:07:00,
2013-10-07 04:10:00,42.8,42.8,29.06,WNW,302,0.0,0.0,100,0.00,,,0.00,VWS V13.01,2013-10-07 09:10:00,
2013-10-07 04:11:00,42.8,42.8,29.06,WNW,302,0.0,0.0,100,0.00,,,0.00,VWS V13.01,2013-10-07 09:11:00,
2013-10-07 04:12:00,42.8,42.8,29.06,WNW,302,0.0,0.0,100,0.00,,,0.00,VWS V13.01,2013-10-07 09:12:00,
2013-10-07 04:15:00,42.8,42.8,29.06,WNW,302,0.0,0.0,100,0.00,,,0.00,VWS V13.01,2013-10-07 09:15:00,
2013-10-07 04:16:00,42.8,42.8,29.06,WNW,302,0.0,0.0,100,0.00,,,0.00,VWS V13.01,2013-10-07 09:16:00,
2013-10-07 04:17:00,42.8,42.8,29.06,WNW,302,0.0,0.0,100,0.00,,,0.00,VWS V13.01,2013-10-07 09:17:00,
2013-10-07 04:20:00,43.0,43.0,29.06,WNW,302,0.0,0.0,100,0.00,,,0.00,VWS V13.01,2013-10-07 09:20:00,
2013-10-07 04:21:00,43.0,43.0,29.06,WNW,302,0.0,0.0,100,0.00,,,0.00,VWS V13.01,2013-10-07 09:21:00,
2013-10-07 04:22:00,43.0,43.0,29.06,WNW,302,0.0,0.0,100,0.00,,,0.00,VWS V13.01,2013-10-07 09:22:00,
2013-10-07 04:25:00,42.8,42.8,29.06,WNW,302,0.0,0.0,100,0.00,,,0.00,VWS V13.01,2013-10-07 09:25:00,
2013-10-07 04:26:00,42.8,42.8,29.06,WNW,302,0.0,0.0,100,0.00,,,0.00,VWS V13.01,2013-10-07 09:26:00,
2013-10-07 04:27:00,42.8,42.8,29.06,WNW,302,0.0,0.0,100,0.00,,,0.00,VWS V13.01,2013-10-07 09:27:00,
2013-10-07 04:28:00,42.6,42.6,29.06,WNW,302,0.0,0.0,100,0.00,,,0.00,VWS V13.01,2013-10-07 09:28:00,
2013-10-07 04:30:00,42.6,42.6,29.06,WNW,302,0.0,0.0,100,0.00,,,0.00,VWS V13.01,2013-10-07 09:30:00,
2013-10-07 04:31:00,42.6,42.6,29.06,WNW,302,0.0,0.0,100,0.00,,,0.00,VWS V13.01,2013-10-07 09:31:00,
2013-10-07 04:32:00,42.6,42.6,29.06,WNW,302,0.0,0.0,100,0.00,,,0.00,VWS V13.01,2013-10-07 09:32:00,
2013-10-07 04:33:00,42.4,42.4,29.06,WNW,302,0.0,0.0,100,0.00,,,0.00,VWS V13.01,2013-10-07 09:33:00,
2013-10-07 04:35:00,42.6,42.6,29.06,WNW,302,0.0,0.0,100,0.00,,,0.00,VWS V13.01,2013-10-07 09:35:00,
2013-10-07 04:36:00,42.6,42.6,29.06,WNW,302,0.0,0.0,100,0.00,,,0.00,VWS V13.01,2013-10-07 09:36:00,
2013-10-07 04:37:00,42.6,42.6,29.06,WNW,302,0.0,0.0,100,0.00,,,0.00,VWS V13.01,2013-10-07 09:37:00,
2013-10-07 04:38:00,42.8,42.8,29.06,WNW,290,2.7,2.7,100,0.00,,,0.00,VWS V13.01,2013-10-07 09:38:00,
2013-10-07 04:40:00,43.0,43.0,29.06,WNW,290,0.0,0.0,100,0.00,,,0.00,VWS V13.01,2013-10-07 09:40:00,
2013-10-07 04:41:00,42.8,42.8,29.06,WNW,290,2.2,2.2,100,0.00,,,0.00,VWS V13.01,2013-10-07 09:41:00,
2013-10-07 04:42:00,42.8,42.8,29.06,WNW,290,0.0,0.0,100,0.00,,,0.00,VWS V13.01,2013-10-07 09:42:00,
2013-10-07 04:44:00,42.8,42.8,29.06,WNW,290,0.0,0.0,100,0.00,,,0.00,VWS V13.01,2013-10-07 09:44:00,
2013-10-07 04:45:00,42.8,42.8,29.06,WNW,290,0.0,0.0,100,0.00,,,0.00,VWS V13.01,2013-10-07 09:45:00,
2013-10-07 04:46:00,42.6,42.6,29.06,WNW,290,0.0,0.0,100,0.00,,,0.00,VWS V13.01,2013-10-07 09:46:00,
2013-10-07 04:47:00,42.6,42.6,29.06,WNW,290,0.0,0.0,100,0.00,,,0.00,VWS V13.01,2013-10-07 09:47:00,
2013-10-07 04:48:00,42.6,42.6,29.06,WNW,290,0.0,0.0,100,0.00,,,0.00,VWS V13.01,2013-10-07 09:48:00,
2013-10-07 04:49:00,42.4,42.4,29.06,WNW,290,0.0,0.0,100,0.00,,,0.00,VWS V13.01,2013-10-07 09:49:00,
2013-10-07 04:50:00,42.4,42.4,29.06,WNW,290,0.0,0.0,100,0.00,,,0.00,VWS V13.01,2013-10-07 09:50:00,
2013-10-07 04:51:00,42.3,42.3,29.06,WNW,290,0.0,0.0,100,0.00,,,0.00,VWS V13.01,2013-10-07 09:51:00,
2013-10-07 04:52:00,42.3,42.3,29.06,WNW,290,0.0,0.0,100,0.00,,,0.00,VWS V13.01,2013-10-07 09:52:00,
2013-10-07 04:53:00,42.3,42.3,29.06,WNW,290,0.0,0.0,100,0.00,,,0.00,VWS V13.01,2013-10-07 09:53:00,
2013-10-07 04:54:00,42.3,42.3,29.06,WNW,290,0.0,0.0,100,0.00,,,0.00,VWS V13.01,2013-10-07 09:54:00,
2013-10-07 04:55:00,42.1,42.1,29.06,WNW,290,0.0,0.0,100,0.00,,,0.00,VWS V13.01,2013-10-07 09:55:00,
2013-10-07 04:56:00,42.1,42.1,29.06,WNW,290,0.0,0.0,100,0.00,,,0.00,VWS V13.01,2013-10-07 09:56:00,
2013-10-07 04:57:00,42.1,42.1,29.06,WNW,290,0.0,0.0,100,0.00,,,0.00,VWS V13.01,2013-10-07 09:57:00,
2013-10-07 04:58:00,42.3,42.3,29.06,WNW,290,0.0,0.0,100,0.00,,,0.00,VWS V13.01,2013-10-07 09:58:00,
2013-10-07 04:59:00,42.1,42.1,29.06,WNW,290,0.0,0.0,100,0.00,,,0.00,VWS V13.01,2013-10-07 09:59:00,
2013-10-07 05:00:00,42.1,42.1,29.06,WNW,290,0.0,0.0,100,0.00,,,0.00,VWS V13.01,2013-10-07 10:00:00,
2013-10-07 05:01:00,42.1,42.1,29.06,WNW,290,0.0,0.0,100,0.00,,,0.00,VWS V13.01,2013-10-07 10:01:00,
2013-10-07 05:02:00,42.1,42.1,29.06,WNW,290,0.0,0.0,100,0.00,,,0.00,VWS V13.01,2013-10-07 10:02:00,
2013-10-07 05:03:00,42.1,42.1,29.06,WNW,290,0.0,0.0,100,0.00,,,0.00,VWS V13.01,2013-10-07 10:03:00,
2013-10-07 05:04:00,42.1,42.1,29.06,WNW,290,0.0,0.0,100,0.00,,,0.00,VWS V13.01,2013-10-07 10:04:00,
2013-10-07 05:06:00,42.1,42.1,29.06,WNW,290,0.0,0.0,100,0.00,,,0.00,VWS V13.01,2013-10-07 10:06:00,
2013-10-07 05:07:00,42.1,42.1,29.06,WNW,290,0.0,0.0,100,0.00,,,0.00,VWS V13.01,2013-10-07 10:07:00,
2013-10-07 05:08:00,42.1,42.1,29.06,WNW,290,0.0,0.0,100,0.00,,,0.00,VWS V13.01,2013-10-07 10:08:00,
2013-10-07 05:09:00,42.1,42.1,29.06,WNW,290,0.0,0.0,100,0.00,,,0.00,VWS V13.01,2013-10-07 10:09:00,
2013-10-07 05:11:00,41.9,41.9,29.06,WNW,290,0.0,0.0,100,0.00,,,0.00,VWS V13.01,2013-10-07 10:11:00,
2013-10-07 05:12:00,41.9,41.9,29.06,WNW,290,0.0,0.0,100,0.00,,,0.00,VWS V13.01,2013-10-07 10:12:00,
2013-10-07 05:13:00,41.9,41.9,29.06,WNW,290,0.0,0.0,100,0.00,,,0.00,VWS V13.01,2013-10-07 10:13:00,
2013-10-07 05:14:00,41.7,41.7,29.06,WNW,290,0.0,0.0,100,0.00,,,0.00,VWS V13.01,2013-10-07 10:14:00,
2013-10-07 05:16:00,41.7,41.7,29.06,WNW,290,0.0,0.0,100,0.00,,,0.00,VWS V13.01,2013-10-07 10:16:00,
2013-10-07 05:17:00,41.7,41.7,29.06,WNW,290,0.0,0.0,100,0.00,,,0.00,VWS V13.01,2013-10-07 10:17:00,
2013-10-07 05:18:00,41.5,41.5,29.06,WNW,290,0.0,0.0,100,0.00,,,0.00,VWS V13.01,2013-10-07 10:18:00,
2013-10-07 05:20:00,41.5,41.5,29.06,WNW,290,0.0,0.0,100,0.00,,,0.00,VWS V13.01,2013-10-07 10:20:00,
2013-10-07 05:21:00,41.5,41.5,29.06,WNW,290,0.0,0.0,100,0.00,,,0.00,VWS V13.01,2013-10-07 10:21:00,
2013-10-07 05:22:00,41.5,41.5,29.06,WNW,290,0.0,0.0,100,0.00,,,0.00,VWS V13.01,2013-10-07 10:22:00,
2013-10-07 05:24:00,41.5,41.5,29.06,WNW,290,0.0,0.0,100,0.00,,,0.00,VWS V13.01,2013-10-07 10:24:00,
2013-10-07 05:25:00,41.5,41.5,29.09,WNW,290,0.0,0.0,100,0.00,,,0.00,VWS V13.01,2013-10-07 10:25:00,
2013-10-07 05:26:00,41.5,41.5,29.09,WNW,290,0.0,0.0,100,0.00,,,0.00,VWS V13.01,2013-10-07 10:26:00,
2013-10-07 05:27:00,41.5,41.5,29.09,WNW,290,0.0,0.0,100,0.00,,,0.00,VWS V13.01,2013-10-07 10:27:00,
2013-10-07 05:28:00,41.5,41.5,29.09,WNW,290,0.0,0.0,100,0.00,,,0.00,VWS V13.01,2013-10-07 10:28:00,
2013-10-07 05:29:00,41.5,41.5,29.09,WNW,290,0.0,0.0,100,0.00,,,0.00,VWS V13.01,2013-10-07 10:29:00,
2013-10-07 05:30:00,41.5,41.5,29.09,WNW,290,0.0,0.0,100,0.00,,,0.00,VWS V13.01,2013-10-07 10:30:00,
2013-10-07 05:31:00,41.7,41.7,29.09,WNW,290,0.0,0.0,100,0.00,,,0.00,VWS V13.01,2013-10-07 10:31:00,
2013-10-07 05:32:00,41.7,41.7,29.09,WNW,290,0.0,0.0,100,0.00,,,0.00,VWS V13.01,2013-10-07 10:32:00,
2013-10-07 05:33:00,41.7,41.7,29.09,WNW,290,0.0,0.0,100,0.00,,,0.00,VWS V13.01,2013-10-07 10:33:00,
2013-10-07 05:34:00,41.7,41.7,29.09,WNW,290,0.0,0.0,100,0.00,,,0.00,VWS V13.01,2013-10-07 10:34:00,
2013-10-07 05:35:00,41.7,41.7,29.09,WNW,290,0.0,0.0,100,0.00,,,0.00,VWS V13.01,2013-10-07 10:35:00,
2013-10-07 05:37:00,41.7,41.7,29.09,WNW,290,0.0,0.0,100,0.00,,,0.00,VWS V13.01,2013-10-07 10:37:00,
2013-10-07 05:38:00,41.9,41.9,29.09,WNW,290,0.0,0.0,100,0.00,,,0.00,VWS V13.01,2013-10-07 10:38:00,
2013-10-07 05:39:00,41.9,41.9,29.09,WNW,290,0.0,0.0,100,0.00,,,0.00,VWS V13.01,2013-10-07 10:39:00,
2013-10-07 05:40:00,42.1,42.1,29.09,WNW,290,0.0,0.0,100,0.00,,,0.00,VWS V13.01,2013-10-07 10:40:00,
2013-10-07 05:42:00,42.1,42.1,29.09,WNW,290,0.0,0.0,100,0.00,,,0.00,VWS V13.01,2013-10-07 10:42:00,
2013-10-07 05:43:00,42.1,42.1,29.09,WNW,290,0.0,0.0,100,0.00,,,0.00,VWS V13.01,2013-10-07 10:43:00,
2013-10-07 05:44:00,42.1,42.1,29.09,WNW,290,0.0,0.0,100,0.00,,,0.00,VWS V13.01,2013-10-07 10:44:00,
2013-10-07 05:45:00,42.1,42.1,29.09,WNW,290,0.0,0.0,100,0.00,,,0.00,VWS V13.01,2013-10-07 10:45:00,
2013-10-07 05:47:00,42.1,42.1,29.09,WNW,290,0.0,0.0,100,0.00,,,0.00,VWS V13.01,2013-10-07 10:47:00,
2013-10-07 05:48:00,42.1,42.1,29.09,WNW,290,0.0,0.0,100,0.00,,,0.00,VWS V13.01,2013-10-07 10:48:00,
2013-10-07 05:49:00,42.1,42.1,29.09,WNW,290,0.0,0.0,100,0.00,,,0.00,VWS V13.01,2013-10-07 10:49:00,
2013-10-07 05:50:00,42.1,42.1,29.09,WNW,290,0.0,0.0,100,0.00,,,0.00,VWS V13.01,2013-10-07 10:50:00,
2013-10-07 05:52:00,42.1,42.1,29.09,WNW,290,0.0,0.0,100,0.00,,,0.00,VWS V13.01,2013-10-07 10:52:00,
2013-10-07 05:53:00,41.9,41.9,29.09,WNW,290,0.0,0.0,100,0.00,,,0.00,VWS V13.01,2013-10-07 10:53:00,
2013-10-07 05:54:00,41.9,41.9,29.09,WNW,290,0.0,0.0,100,0.00,,,0.00,VWS V13.01,2013-10-07 10:54:00,
2013-10-07 05:55:00,41.9,41.9,29.09,WNW,290,4.0,4.0,100,0.00,,,0.00,VWS V13.01,2013-10-07 10:55:00,
2013-10-07 05:57:00,41.9,41.9,29.09,WNW,290,0.0,0.0,100,0.00,,,0.00,VWS V13.01,2013-10-07 10:57:00,
2013-10-07 05:58:00,41.7,41.7,29.09,WNW,290,0.0,0.0,100,0.00,,,0.00,VWS V13.01,2013-10-07 10:58:00,
2013-10-07 05:59:00,41.9,41.9,29.09,WNW,290,0.0,0.0,100,0.00,,,0.00,VWS V13.01,2013-10-07 10:59:00,
2013-10-07 06:00:00,41.7,41.7,29.09,WNW,290,0.0,0.0,100,0.00,,,0.00,VWS V13.01,2013-10-07 11:00:00,
2013-10-07 06:02:00,41.9,41.9,29.09,WNW,290,0.0,0.0,100,0.00,,,0.00,VWS V13.01,2013-10-07 11:02:00,
2013-10-07 06:03:00,41.9,41.9,29.09,WNW,290,3.1,3.1,100,0.00,,,0.00,VWS V13.01,2013-10-07 11:03:00,
2013-10-07 06:04:00,41.9,41.9,29.09,WNW,290,2.7,2.7,100,0.00,,,0.00,VWS V13.01,2013-10-07 11:04:00,
2013-10-07 06:06:00,41.9,41.9,29.09,WNW,290,3.1,3.1,100,0.00,,,0.00,VWS V13.01,2013-10-07 11:06:00,
2013-10-07 06:07:00,41.9,41.9,29.09,WNW,290,0.0,0.0,100,0.00,,,0.00,VWS V13.01,2013-10-07 11:07:00,
2013-10-07 06:08:00,41.7,41.7,29.09,WNW,290,0.0,0.0,100,0.00,,,0.00,VWS V13.01,2013-10-07 11:08:00,
2013-10-07 06:09:00,41.7,41.7,29.09,WNW,290,0.0,0.0,100,0.00,,,0.00,VWS V13.01,2013-10-07 11:09:00,
2013-10-07 06:11:00,41.5,41.5,29.09,WNW,290,0.0,0.0,100,0.00,,,0.00,VWS V13.01,2013-10-07 11:11:00,
2013-10-07 06:12:00,41.5,41.5,29.09,WNW,290,0.0,0.0,100,0.00,,,0.00,VWS V13.01,2013-10-07 11:12:00,
2013-10-07 06:13:00,41.5,41.5,29.09,WNW,290,0.0,0.0,100,0.00,,,0.00,VWS V13.01,2013-10-07 11:13:00,
2013-10-07 06:15:00,41.4,41.4,29.09,WNW,290,0.0,0.0,100,0.00,,,0.00,VWS V13.01,2013-10-07 11:15:00,
2013-10-07 06:16:00,41.4,41.4,29.09,WNW,290,0.0,0.0,100,0.00,,,0.00,VWS V13.01,2013-10-07 11:16:00,
2013-10-07 06:17:00,41.4,41.4,29.09,WNW,290,0.0,0.0,100,0.00,,,0.00,VWS V13.01,2013-10-07 11:17:00,
2013-10-07 06:18:00,41.2,41.2,29.09,WNW,290,0.0,0.0,100,0.00,,,0.00,VWS V13.01,2013-10-07 11:18:00,
2013-10-07 06:20:00,41.2,41.2,29.09,WNW,290,0.0,0.0,100,0.00,,,0.00,VWS V13.01,2013-10-07 11:20:00,
2013-10-07 06:21:00,41.2,41.2,29.09,WNW,290,0.0,0.0,100,0.00,,,0.00,VWS V13.01,2013-10-07 11:21:00,
2013-10-07 06:22:00,41.2,41.2,29.09,WNW,290,0.0,0.0,100,0.00,,,0.00,VWS V13.01,2013-10-07 11:22:00,
2013-10-07 06:23:00,41.2,41.2,29.09,WNW,290,0.0,0.0,100,0.00,,,0.00,VWS V13.01,2013-10-07 11:23:00,
2013-10-07 06:24:00,41.2,41.2,29.09,WNW,290,0.0,0.0,100,0.00,,,0.00,VWS V13.01,2013-10-07 11:24:00,
2013-10-07 06:25:00,41.2,41.2,29.09,WNW,290,0.0,0.0,100,0.00,,,0.00,VWS V13.01,2013-10-07 11:25:00,
2013-10-07 06:26:00,41.4,41.4,29.09,WNW,290,0.0,0.0,100,0.00,,,0.00,VWS V13.01,2013-10-07 11:26:00,
2013-10-07 06:27:00,41.2,41.2,29.09,WNW,290,0.0,0.0,100,0.00,,,0.00,VWS V13.01,2013-10-07 11:27:00,
2013-10-07 06:28:00,41.2,41.2,29.09,WNW,290,0.0,0.0,100,0.00,,,0.00,VWS V13.01,2013-10-07 11:28:00,
2013-10-07 06:29:00,41.2,41.2,29.09,WNW,290,0.0,0.0,100,0.00,,,0.00,VWS V13.01,2013-10-07 11:29:00,
2013-10-07 06:30:00,41.2,41.2,29.09,WNW,290,0.0,0.0,100,0.00,,,0.00,VWS V13.01,2013-10-07 11:30:00,
2013-10-07 06:31:00,41.2,41.2,29.09,WNW,290,0.0,0.0,100,0.00,,,0.00,VWS V13.01,2013-10-07 11:31:00,
2013-10-07 06:32:00,41.2,41.2,29.09,WNW,290,0.0,0.0,100,0.00,,,0.00,VWS V13.01,2013-10-07 11:32:00,
2013-10-07 06:33:00,41.2,41.2,29.09,WNW,290,0.0,0.0,100,0.00,,,0.00,VWS V13.01,2013-10-07 11:33:00,
2013-10-07 06:34:00,41.2,41.2,29.09,WNW,290,0.0,0.0,100,0.00,,,0.00,VWS V13.01,2013-10-07 11:34:00,
2013-10-07 06:35:00,41.2,41.2,29.09,WNW,290,0.0,0.0,100,0.00,,,0.00,VWS V13.01,2013-10-07 11:35:00,
2013-10-07 06:36:00,41.2,41.2,29.09,WNW,290,0.0,0.0,100,0.00,,,0.00,VWS V13.01,2013-10-07 11:36:00,
2013-10-07 06:37:00,41.2,41.2,29.09,WNW,290,0.0,0.0,100,0.00,,,0.00,VWS V13.01,2013-10-07 11:37:00,
2013-10-07 06:38:00,41.2,41.2,29.09,WNW,290,0.0,0.0,100,0.00,,,0.00,VWS V13.01,2013-10-07 11:38:00,
2013-10-07 06:39:00,41.0,41.0,29.09,WNW,290,4.0,4.0,100,0.00,,,0.00,VWS V13.01,2013-10-07 11:39:00,
2013-10-07 06:40:00,41.0,41.0,29.12,WNW,290,2.7,2.7,100,0.00,,,0.00,VWS V13.01,2013-10-07 11:40:00,
2013-10-07 06:42:00,41.0,41.0,29.12,WNW,290,0.0,0.0,100,0.00,,,0.00,VWS V13.01,2013-10-07 11:42:00,
2013-10-07 06:43:00,41.2,41.2,29.12,WNW,290,0.0,0.0,100,0.00,,,0.00,VWS V13.01,2013-10-07 11:43:00,
2013-10-07 06:44:00,41.0,41.0,29.12,WNW,290,0.0,0.0,100,0.00,,,0.00,VWS V13.01,2013-10-07 11:44:00,
2013-10-07 06:45:00,41.0,41.0,29.12,WNW,290,0.0,0.0,100,0.00,,,0.00,VWS V13.01,2013-10-07 11:45:00,
2013-10-07 06:47:00,41.0,41.0,29.12,WNW,290,0.0,0.0,100,0.00,,,0.00,VWS V13.01,2013-10-07 11:47:00,
2013-10-07 06:48:00,41.0,41.0,29.12,WNW,290,0.0,0.0,100,0.00,,,0.00,VWS V13.01,2013-10-07 11:48:00,
2013-10-07 06:49:00,41.0,41.0,29.12,WNW,290,0.0,0.0,100,0.00,,,0.00,VWS V13.01,2013-10-07 11:49:00,
2013-10-07 06:51:00,41.0,41.0,29.12,WNW,290,0.0,0.0,100,0.00,,,0.00,VWS V13.01,2013-10-07 11:51:00,
2013-10-07 06:52:00,41.0,41.0,29.12,WNW,290,0.0,0.0,100,0.00,,,0.00,VWS V13.01,2013-10-07 11:52:00,
2013-10-07 06:53:00,41.0,41.0,29.12,WNW,290,0.0,0.0,100,0.00,,,0.00,VWS V13.01,2013-10-07 11:53:00,
2013-10-07 06:54:00,41.0,41.0,29.12,WNW,290,0.0,0.0,100,0.00,,,0.00,VWS V13.01,2013-10-07 11:54:00,
2013-10-07 06:56:00,41.0,41.0,29.12,WNW,290,0.0,0.0,100,0.00,,,0.00,VWS V13.01,2013-10-07 11:56:00,
2013-10-07 06:57:00,41.0,41.0,29.12,WNW,290,0.0,0.0,100,0.00,,,0.00,VWS V13.01,2013-10-07 11:57:00,
2013-10-07 06:58:00,41.0,41.0,29.12,WNW,290,0.0,0.0,100,0.00,,,0.00,VWS V13.01,2013-10-07 11:58:00,
2013-10-07 06:59:00,41.0,41.0,29.12,WNW,290,0.0,0.0,100,0.00,,,0.00,VWS V13.01,2013-10-07 11:59:00,
2013-10-07 07:01:00,41.0,41.0,29.12,WNW,290,0.0,0.0,100,0.00,,,0.00,VWS V13.01,2013-10-07 12:01:00,
2013-10-07 07:02:00,41.0,41.0,29.12,WNW,290,0.0,0.0,100,0.00,,,0.00,VWS V13.01,2013-10-07 12:02:00,
2013-10-07 07:03:00,41.0,41.0,29.12,WNW,290,0.0,0.0,100,0.00,,,0.00,VWS V13.01,2013-10-07 12:03:00,
2013-10-07 07:04:00,41.0,41.0,29.12,WNW,290,0.0,0.0,100,0.00,,,0.00,VWS V13.01,2013-10-07 12:04:00,
2013-10-07 07:06:00,41.0,41.0,29.12,WNW,290,0.0,0.0,100,0.00,,,0.00,VWS V13.01,2013-10-07 12:06:00,
2013-10-07 07:07:00,41.0,41.0,29.12,WNW,290,0.0,0.0,100,0.00,,,0.00,VWS V13.01,2013-10-07 12:07:00,
2013-10-07 07:08:00,41.0,41.0,29.12,WNW,290,0.0,0.0,100,0.00,,,0.00,VWS V13.01,2013-10-07 12:08:00,
2013-10-07 07:09:00,41.0,41.0,29.12,WNW,290,0.0,0.0,100,0.00,,,0.00,VWS V13.01,2013-10-07 12:09:00,
2013-10-07 07:11:00,41.0,41.0,29.12,WNW,290,0.0,0.0,100,0.00,,,0.00,VWS V13.01,2013-10-07 12:11:00,
2013-10-07 07:12:00,41.0,41.0,29.12,WNW,290,0.0,0.0,100,0.00,,,0.00,VWS V13.01,2013-10-07 12:12:00,
2013-10-07 07:13:00,41.0,41.0,29.12,WNW,290,0.0,0.0,100,0.00,,,0.00,VWS V13.01,2013-10-07 12:13:00,
2013-10-07 07:14:00,41.0,41.0,29.12,WNW,290,0.0,0.0,100,0.00,,,0.00,VWS V13.01,2013-10-07 12:14:00,
2013-10-07 07:15:00,41.0,41.0,29.12,WNW,290,0.0,0.0,100,0.00,,,0.00,VWS V13.01,2013-10-07 12:15:00,
2013-10-07 07:16:00,41.0,41.0,29.12,WNW,290,0.0,0.0,100,0.00,,,0.00,VWS V13.01,2013-10-07 12:16:00,
2013-10-07 07:17:00,41.0,41.0,29.12,WNW,290,0.0,0.0,100,0.00,,,0.00,VWS V13.01,2013-10-07 12:17:00,
2013-10-07 07:18:00,41.0,41.0,29.12,WNW,290,0.0,0.0,100,0.00,,,0.00,VWS V13.01,2013-10-07 12:18:00,
2013-10-07 07:19:00,41.0,41.0,29.12,WNW,290,0.0,0.0,100,0.00,,,0.00,VWS V13.01,2013-10-07 12:19:00,
2013-10-07 07:20:00,41.0,41.0,29.12,WNW,290,0.0,0.0,100,0.00,,,0.00,VWS V13.01,2013-10-07 12:20:00,
2013-10-07 07:22:00,41.0,41.0,29.12,WNW,290,0.0,0.0,100,0.00,,,0.00,VWS V13.01,2013-10-07 12:22:00,
2013-10-07 07:23:00,41.2,41.2,29.12,WNW,290,0.0,0.0,100,0.00,,,0.00,VWS V13.01,2013-10-07 12:23:00,
2013-10-07 07:24:00,41.2,41.2,29.12,WNW,290,0.0,0.0,100,0.00,,,0.00,VWS V13.01,2013-10-07 12:24:00,
2013-10-07 07:26:00,41.5,41.5,29.12,WNW,290,0.0,0.0,100,0.00,,,0.00,VWS V13.01,2013-10-07 12:26:00,
2013-10-07 07:27:00,41.7,41.7,29.12,WNW,290,0.0,0.0,100,0.00,,,0.00,VWS V13.01,2013-10-07 12:27:00,
2013-10-07 07:28:00,42.1,42.1,29.12,WNW,290,0.0,0.0,100,0.00,,,0.00,VWS V13.01,2013-10-07 12:28:00,
2013-10-07 07:29:00,42.3,42.3,29.12,WNW,290,0.0,0.0,100,0.00,,,0.00,VWS V13.01,2013-10-07 12:29:00,
2013-10-07 07:31:00,42.6,42.6,29.12,WNW,290,0.0,0.0,100,0.00,,,0.00,VWS V13.01,2013-10-07 12:31:00,
2013-10-07 07:32:00,42.8,42.8,29.12,WNW,290,0.0,0.0,100,0.00,,,0.00,VWS V13.01,2013-10-07 12:32:00,
2013-10-07 07:33:00,43.0,43.0,29.12,WNW,290,0.0,0.0,100,0.00,,,0.00,VWS V13.01,2013-10-07 12:33:00,
2013-10-07 07:34:00,43.5,43.5,29.12,WNW,290,0.0,0.0,100,0.00,,,0.00,VWS V13.01,2013-10-07 12:34:00,
2013-10-07 07:37:00,43.7,43.7,29.12,WNW,290,0.0,0.0,100,0.00,,,0.00,VWS V13.01,2013-10-07 12:37:00,
2013-10-07 07:38:00,43.9,43.9,29.12,WNW,290,0.0,0.0,100,0.00,,,0.00,VWS V13.01,2013-10-07 12:38:00,
2013-10-07 07:39:00,44.1,44.1,29.12,WNW,290,0.0,0.0,100,0.00,,,0.00,VWS V13.01,2013-10-07 12:39:00,
2013-10-07 07:42:00,43.9,43.9,29.12,WNW,290,0.0,0.0,100,0.00,,,0.00,VWS V13.01,2013-10-07 12:42:00,
2013-10-07 07:43:00,43.9,43.9,29.12,WNW,290,0.0,0.0,100,0.00,,,0.00,VWS V13.01,2013-10-07 12:43:00,
2013-10-07 07:44:00,43.7,43.7,29.12,WNW,290,0.0,0.0,100,0.00,,,0.00,VWS V13.01,2013-10-07 12:44:00,
2013-10-07 07:47:00,44.1,44.1,29.12,WNW,290,0.0,0.0,100,0.00,,,0.00,VWS V13.01,2013-10-07 12:47:00,
2013-10-07 07:48:00,44.1,44.1,29.12,WNW,290,0.0,0.0,100,0.00,,,0.00,VWS V13.01,2013-10-07 12:48:00,
2013-10-07 07:50:00,44.4,44.4,29.12,WNW,290,0.0,0.0,100,0.00,,,0.00,VWS V13.01,2013-10-07 12:50:00,
2013-10-07 07:52:00,44.8,44.8,29.12,WNW,290,0.0,0.0,100,0.00,,,0.00,VWS V13.01,2013-10-07 12:52:00,
2013-10-07 07:53:00,45.0,45.0,29.12,WNW,290,3.6,3.6,100,0.00,,,0.00,VWS V13.01,2013-10-07 12:53:00,
2013-10-07 07:54:00,44.6,44.6,29.12,WNW,290,0.0,0.0,100,0.00,,,0.00,VWS V13.01,2013-10-07 12:54:00,
2013-10-07 07:55:00,44.6,44.6,29.12,WNW,290,0.0,0.0,100,0.00,,,0.00,VWS V13.01,2013-10-07 12:55:00,
2013-10-07 07:57:00,44.2,44.2,29.12,WNW,290,0.0,0.0,100,0.00,,,0.00,VWS V13.01,2013-10-07 12:57:00,
2013-10-07 07:58:00,44.2,44.2,29.12,WNW,290,3.1,3.1,100,0.00,,,0.00,VWS V13.01,2013-10-07 12:58:00,
2013-10-07 07:59:00,44.2,44.2,29.12,WNW,290,0.0,0.0,100,0.00,,,0.00,VWS V13.01,2013-10-07 12:59:00,
2013-10-07 08:00:00,44.1,44.1,29.12,WNW,290,0.0,0.0,100,0.00,,,0.00,VWS V13.01,2013-10-07 13:00:00,
2013-10-07 08:02:00,44.1,44.1,29.12,WNW,290,0.0,0.0,100,0.00,,,0.00,VWS V13.01,2013-10-07 13:02:00,
2013-10-07 08:03:00,43.9,43.9,29.12,WNW,290,0.0,0.0,100,0.00,,,0.00,VWS V13.01,2013-10-07 13:03:00,
2013-10-07 08:04:00,43.9,43.9,29.12,WNW,290,0.0,0.0,100,0.00,,,0.00,VWS V13.01,2013-10-07 13:04:00,
2013-10-07 08:05:00,44.1,44.1,29.12,WNW,290,0.0,0.0,100,0.00,,,0.00,VWS V13.01,2013-10-07 13:05:00,
2013-10-07 08:07:00,44.8,44.8,29.12,WNW,290,2.2,2.2,100,0.00,,,0.00,VWS V13.01,2013-10-07 13:07:00,
2013-10-07 08:08:00,45.0,45.0,29.12,WNW,290,2.2,2.2,100,0.00,,,0.00,VWS V13.01,2013-10-07 13:08:00,
2013-10-07 08:09:00,45.1,45.1,29.12,WNW,290,0.0,0.0,100,0.00,,,0.00,VWS V13.01,2013-10-07 13:09:00,
2013-10-07 08:10:00,45.1,45.1,29.12,WNW,290,0.0,0.0,100,0.00,,,0.00,VWS V13.01,2013-10-07 13:10:00,
2013-10-07 08:12:00,45.0,45.0,29.12,WNW,290,0.0,0.0,100,0.00,,,0.00,VWS V13.01,2013-10-07 13:12:00,
2013-10-07 08:13:00,44.8,44.8,29.12,WNW,290,0.0,0.0,100,0.00,,,0.00,VWS V13.01,2013-10-07 13:13:00,
2013-10-07 08:14:00,44.8,44.8,29.12,WNW,290,0.0,0.0,100,0.00,,,0.00,VWS V13.01,2013-10-07 13:14:00,
2013-10-07 08:15:00,44.8,44.8,29.12,WNW,290,0.0,0.0,100,0.00,,,0.00,VWS V13.01,2013-10-07 13:15:00,
2013-10-07 08:17:00,44.6,44.6,29.12,WNW,290,0.0,0.0,100,0.00,,,0.00,VWS V13.01,2013-10-07 13:17:00,
2013-10-07 08:18:00,44.6,44.6,29.12,WNW,290,0.0,0.0,100,0.00,,,0.00,VWS V13.01,2013-10-07 13:18:00,
2013-10-07 08:19:00,44.6,44.6,29.12,WNW,290,0.0,0.0,100,0.00,,,0.00,VWS V13.01,2013-10-07 13:19:00,
2013-10-07 08:20:00,44.6,44.6,29.12,WNW,290,0.0,0.0,100,0.00,,,0.00,VWS V13.01,2013-10-07 13:20:00,
2013-10-07 08:22:00,44.6,44.6,29.12,WNW,290,0.0,0.0,100,0.00,,,0.00,VWS V13.01,2013-10-07 13:22:00,
2013-10-07 08:23:00,44.6,44.6,29.12,WNW,290,0.0,0.0,100,0.00,,,0.00,VWS V13.01,2013-10-07 13:23:00,
2013-10-07 08:24:00,44.8,44.8,29.12,WNW,290,0.0,0.0,100,0.00,,,0.00,VWS V13.01,2013-10-07 13:24:00,
2013-10-07 08:25:00,44.8,44.8,29.12,WNW,290,0.0,0.0,100,0.00,,,0.00,VWS V13.01,2013-10-07 13:25:00,
2013-10-07 08:27:00,44.8,44.8,29.12,WNW,290,0.0,0.0,100,0.00,,,0.00,VWS V13.01,2013-10-07 13:27:00,
2013-10-07 08:28:00,45.0,45.0,29.12,WNW,290,0.0,0.0,100,0.00,,,0.00,VWS V13.01,2013-10-07 13:28:00,
2013-10-07 08:29:00,45.0,45.0,29.12,WNW,290,0.0,0.0,100,0.00,,,0.00,VWS V13.01,2013-10-07 13:29:00,
2013-10-07 08:30:00,45.1,45.1,29.12,WNW,290,0.0,0.0,100,0.00,,,0.00,VWS V13.01,2013-10-07 13:30:00,
2013-10-07 08:33:00,45.3,45.3,29.12,WNW,290,0.0,0.0,100,0.00,,,0.00,VWS V13.01,2013-10-07 13:33:00,
2013-10-07 08:34:00,45.5,45.5,29.12,WNW,290,0.0,0.0,100,0.00,,,0.00,VWS V13.01,2013-10-07 13:34:00,
2013-10-07 08:35:00,45.7,45.7,29.12,WNW,290,0.0,0.0,100,0.00,,,0.00,VWS V13.01,2013-10-07 13:35:00,
2013-10-07 08:38:00,45.9,45.9,29.12,WNW,290,0.0,0.0,100,0.00,,,0.00,VWS V13.01,2013-10-07 13:38:00,
2013-10-07 08:39:00,46.0,46.0,29.12,WNW,290,0.0,0.0,100,0.00,,,0.00,VWS V13.01,2013-10-07 13:39:00,
2013-10-07 08:40:00,46.2,46.2,29.12,WNW,290,0.0,0.0,100,0.00,,,0.00,VWS V13.01,2013-10-07 13:40:00,
2013-10-07 08:43:00,46.8,46.8,29.12,WNW,290,0.0,0.0,100,0.00,,,0.00,VWS V13.01,2013-10-07 13:43:00,
2013-10-07 08:44:00,47.1,47.1,29.12,WNW,290,0.0,0.0,100,0.00,,,0.00,VWS V13.01,2013-10-07 13:44:00,
2013-10-07 08:45:00,48.0,48.0,29.12,WNW,290,3.1,3.1,100,0.00,,,0.00,VWS V13.01,2013-10-07 13:45:00,
2013-10-07 08:48:00,49.3,49.3,29.12,WNW,290,0.0,0.0,100,0.00,,,0.00,VWS V13.01,2013-10-07 13:48:00,
2013-10-07 08:49:00,49.3,49.3,29.12,WNW,290,0.0,0.0,100,0.00,,,0.00,VWS V13.01,2013-10-07 13:49:00,
2013-10-07 08:50:00,49.3,49.3,29.12,WNW,290,0.0,0.0,100,0.00,,,0.00,VWS V13.01,2013-10-07 13:50:00,
2013-10-07 08:53:00,49.1,49.1,29.12,WNW,290,0.0,0.0,100,0.00,,,0.00,VWS V13.01,2013-10-07 13:53:00,
2013-10-07 08:55:00,48.9,48.9,29.15,WNW,290,0.0,0.0,100,0.00,,,0.00,VWS V13.01,2013-10-07 13:55:00,
2013-10-07 08:58:00,49.8,49.8,29.15,WNW,290,0.0,0.0,100,0.00,,,0.00,VWS V13.01,2013-10-07 13:58:00,
2013-10-07 09:00:00,50.0,50.0,29.15,WNW,290,0.0,0.0,100,0.00,,,0.00,VWS V13.01,2013-10-07 14:00:00,
2013-10-07 09:03:00,52.9,52.9,29.15,WNW,290,0.0,0.0,100,0.00,,,0.00,VWS V13.01,2013-10-07 14:03:00,
2013-10-07 09:05:00,53.6,53.6,29.15,WNW,290,0.0,0.0,100,0.00,,,0.00,VWS V13.01,2013-10-07 14:05:00,
2013-10-07 09:06:00,53.6,52.8,29.15,WNW,290,0.0,0.0,97,0.00,,,0.00,VWS V13.01,2013-10-07 14:06:00,
2013-10-07 09:08:00,54.1,53.3,29.15,WNW,290,0.0,0.0,97,0.00,,,0.00,VWS V13.01,2013-10-07 14:08:00,
2013-10-07 09:10:00,54.0,49.6,29.15,WNW,290,3.6,3.6,85,0.00,,,0.00,VWS V13.01,2013-10-07 14:10:00,
2013-10-07 09:11:00,55.6,49.2,29.15,WNW,290,2.7,2.7,79,0.00,,,0.00,VWS V13.01,2013-10-07 14:11:00,
2013-10-07 09:13:00,57.2,50.8,29.15,WNW,290,0.0,0.0,79,0.00,,,0.00,VWS V13.01,2013-10-07 14:13:00,
2013-10-07 09:15:00,57.7,51.3,29.15,WNW,299,2.7,2.7,79,0.00,,,0.00,VWS V13.01,2013-10-07 14:15:00,
2013-10-07 09:16:00,57.9,51.5,29.15,West,274,2.7,2.7,79,0.00,,,0.00,VWS V13.01,2013-10-07 14:16:00,
2013-10-07 09:18:00,59.2,52.7,29.15,WNW,295,2.2,2.2,79,0.00,,,0.00,VWS V13.01,2013-10-07 14:18:00,
2013-10-07 09:20:00,58.6,45.2,29.15,WNW,295,3.1,3.1,61,0.00,,,0.00,VWS V13.01,2013-10-07 14:20:00,
2013-10-07 09:21:00,58.5,52.0,29.15,WNW,295,0.0,0.0,79,0.00,,,0.00,VWS V13.01,2013-10-07 14:21:00,
2013-10-07 09:23:00,57.0,46.2,29.15,WNW,295,0.0,0.0,67,0.00,,,0.00,VWS V13.01,2013-10-07 14:23:00,
2013-10-07 09:25:00,58.1,44.7,29.15,WNW,295,0.0,0.0,61,0.00,,,0.00,VWS V13.01,2013-10-07 14:25:00,
2013-10-07 09:26:00,58.1,44.7,29.15,WNW,296,0.0,0.0,61,0.00,,,0.00,VWS V13.01,2013-10-07 14:26:00,
2013-10-07 09:28:00,59.5,46.1,29.15,WNW,301,4.0,4.0,61,0.00,,,0.00,VWS V13.01,2013-10-07 14:28:00,
2013-10-07 09:29:00,60.6,47.1,29.15,WNW,301,0.0,0.0,61,0.00,,,0.00,VWS V13.01,2013-10-07 14:29:00,
2013-10-07 09:30:00,60.8,47.3,29.15,WNW,301,4.0,4.0,61,0.00,,,0.00,VWS V13.01,2013-10-07 14:30:00,
2013-10-07 09:31:00,60.8,47.3,29.15,WNW,301,4.0,4.0,61,0.00,,,0.00,VWS V13.01,2013-10-07 14:31:00,
2013-10-07 09:33:00,62.4,48.8,29.15,WNW,301,0.0,0.0,61,0.00,,,0.00,VWS V13.01,2013-10-07 14:33:00,
2013-10-07 09:34:00,62.1,48.5,29.15,WNW,301,4.0,4.0,61,0.00,,,0.00,VWS V13.01,2013-10-07 14:34:00,
2013-10-07 09:35:00,61.3,47.8,29.15,WNW,301,3.6,3.6,61,0.00,,,0.00,VWS V13.01,2013-10-07 14:35:00,
2013-10-07 09:36:00,61.3,47.8,29.15,WNW,301,2.2,2.2,61,0.00,,,0.00,VWS V13.01,2013-10-07 14:36:00,
2013-10-07 09:37:00,60.8,47.3,29.15,WNW,301,0.0,0.0,61,0.00,,,0.00,VWS V13.01,2013-10-07 14:37:00,
2013-10-07 09:38:00,58.8,45.4,29.15,WNW,301,0.0,0.0,61,0.00,,,0.00,VWS V13.01,2013-10-07 14:38:00,
2013-10-07 09:39:00,58.5,45.1,29.15,WNW,301,0.0,0.0,61,0.00,,,0.00,VWS V13.01,2013-10-07 14:39:00,
2013-10-07 09:41:00,57.4,44.1,29.15,WNW,301,0.0,0.0,61,0.00,,,0.00,VWS V13.01,2013-10-07 14:41:00,
2013-10-07 09:42:00,56.8,46.0,29.15,WNW,301,0.0,0.0,67,0.00,,,0.00,VWS V13.01,2013-10-07 14:42:00,
2013-10-07 09:43:00,56.3,45.5,29.15,WNW,301,0.0,0.0,67,0.00,,,0.00,VWS V13.01,2013-10-07 14:43:00,
2013-10-07 09:44:00,56.1,45.3,29.15,WNW,301,0.0,0.0,67,0.00,,,0.00,VWS V13.01,2013-10-07 14:44:00,
2013-10-07 09:46:00,55.4,44.6,29.15,WNW,300,0.0,0.0,67,0.00,,,0.00,VWS V13.01,2013-10-07 14:46:00,
2013-10-07 09:47:00,55.0,44.3,29.15,WNW,300,0.0,0.0,67,0.00,,,0.00,VWS V13.01,2013-10-07 14:47:00,
2013-10-07 09:48:00,54.9,44.1,29.15,WNW,300,0.0,0.0,67,0.00,,,0.00,VWS V13.01,2013-10-07 14:48:00,
2013-10-07 09:49:00,54.7,44.0,29.15,WNW,300,0.0,0.0,67,0.00,,,0.00,VWS V13.01,2013-10-07 14:49:00,
2013-10-07 09:51:00,54.7,44.0,29.15,WNW,300,0.0,0.0,67,0.00,,,0.00,VWS V13.01,2013-10-07 14:51:00,
2013-10-07 09:52:00,54.9,44.1,29.15,WNW,300,0.0,0.0,67,0.00,,,0.00,VWS V13.01,2013-10-07 14:52:00,
2013-10-07 09:53:00,55.0,44.3,29.15,WNW,300,0.0,0.0,67,0.00,,,0.00,VWS V13.01,2013-10-07 14:53:00,
2013-10-07 09:54:00,55.6,44.8,29.15,WNW,300,0.0,0.0,67,0.00,,,0.00,VWS V13.01,2013-10-07 14:54:00,
2013-10-07 09:56:00,55.9,45.2,29.15,WNW,300,0.0,0.0,67,0.00,,,0.00,VWS V13.01,2013-10-07 14:56:00,
2013-10-07 09:58:00,55.8,45.0,29.15,WNW,300,0.0,0.0,67,0.00,,,0.00,VWS V13.01,2013-10-07 14:58:00,
2013-10-07 09:59:00,55.6,44.8,29.15,WNW,300,0.0,0.0,67,0.00,,,0.00,VWS V13.01,2013-10-07 14:59:00,
2013-10-07 10:01:00,55.4,44.6,29.15,WNW,300,0.0,0.0,67,0.00,,,0.00,VWS V13.01,2013-10-07 15:01:00,
2013-10-07 10:03:00,55.2,44.5,29.15,WNW,300,0.0,0.0,67,0.00,,,0.00,VWS V13.01,2013-10-07 15:03:00,
2013-10-07 10:04:00,55.2,44.5,29.15,WNW,300,4.0,4.0,67,0.00,,,0.00,VWS V13.01,2013-10-07 15:04:00,
2013-10-07 10:06:00,55.2,44.5,29.15,WNW,300,3.6,3.6,67,0.00,,,0.00,VWS V13.01,2013-10-07 15:06:00,
2013-10-07 10:07:00,55.0,44.3,29.15,WNW,300,4.0,4.0,67,0.00,,,0.00,VWS V13.01,2013-10-07 15:07:00,
2013-10-07 10:08:00,55.2,44.5,29.15,WNW,300,0.0,0.0,67,0.00,,,0.00,VWS V13.01,2013-10-07 15:08:00,
2013-10-07 10:09:00,55.2,44.5,29.15,WNW,300,2.7,2.7,67,0.00,,,0.00,VWS V13.01,2013-10-07 15:09:00,
2013-10-07 10:11:00,55.2,44.5,29.15,WNW,300,2.2,2.2,67,0.00,,,0.00,VWS V13.01,2013-10-07 15:11:00,
2013-10-07 10:12:00,55.2,44.5,29.15,WNW,300,0.0,0.0,67,0.00,,,0.00,VWS V13.01,2013-10-07 15:12:00,
2013-10-07 10:13:00,55.0,44.3,29.15,South,171,3.6,3.6,67,0.00,,,0.00,VWS V13.01,2013-10-07 15:13:00,
2013-10-07 10:15:00,55.2,44.5,29.15,South,169,4.0,4.0,67,0.00,,,0.00,VWS V13.01,2013-10-07 15:15:00,
2013-10-07 10:16:00,55.4,44.6,29.15,West,275,0.0,0.0,67,0.00,,,0.00,VWS V13.01,2013-10-07 15:16:00,
2013-10-07 10:17:00,55.6,44.8,29.15,WNW,288,0.0,0.0,67,0.00,,,0.00,VWS V13.01,2013-10-07 15:17:00,
2013-10-07 10:18:00,55.6,44.8,29.15,WNW,289,0.0,0.0,67,0.00,,,0.00,VWS V13.01,2013-10-07 15:18:00,
2013-10-07 10:20:00,55.6,44.8,29.15,WNW,289,0.0,0.0,67,0.00,,,0.00,VWS V13.01,2013-10-07 15:20:00,
2013-10-07 10:21:00,55.8,45.0,29.15,WNW,289,0.0,0.0,67,0.00,,,0.00,VWS V13.01,2013-10-07 15:21:00,
2013-10-07 10:22:00,55.9,45.2,29.15,WNW,289,0.0,0.0,67,0.00,,,0.00,VWS V13.01,2013-10-07 15:22:00,
2013-10-07 10:23:00,55.9,45.2,29.15,WNW,289,0.0,0.0,67,0.00,,,0.00,VWS V13.01,2013-10-07 15:23:00,
2013-10-07 10:25:00,56.1,45.3,29.15,WNW,288,0.0,0.0,67,0.00,,,0.00,VWS V13.01,2013-10-07 15:25:00,
2013-10-07 10:26:00,56.1,45.3,29.15,WNW,288,0.0,0.0,67,0.00,,,0.00,VWS V13.01,2013-10-07 15:26:00,
2013-10-07 10:27:00,56.3,45.5,29.15,WNW,288,0.0,0.0,67,0.00,,,0.00,VWS V13.01,2013-10-07 15:27:00,
2013-10-07 10:28:00,56.5,45.7,29.15,South,181,0.0,0.0,67,0.00,,,0.00,VWS V13.01,2013-10-07 15:28:00,
2013-10-07 10:30:00,56.8,46.0,29.15,South,181,0.0,0.0,67,0.00,,,0.00,VWS V13.01,2013-10-07 15:30:00,
2013-10-07 10:31:00,56.8,46.0,29.15,WNW,294,4.0,4.0,67,0.00,,,0.00,VWS V13.01,2013-10-07 15:31:00,
2013-10-07 10:32:00,57.2,43.9,29.15,WNW,295,0.0,0.0,61,0.00,,,0.00,VWS V13.01,2013-10-07 15:32:00,
2013-10-07 10:33:00,57.6,44.2,29.15,WNW,295,0.0,0.0,61,0.00,,,0.00,VWS V13.01,2013-10-07 15:33:00,
2013-10-07 10:34:00,57.9,44.6,29.15,South,175,0.0,0.0,61,0.00,,,0.00,VWS V13.01,2013-10-07 15:34:00,
2013-10-07 10:35:00,58.5,45.1,29.15,West,268,2.2,2.2,61,0.00,,,0.00,VWS V13.01,2013-10-07 15:35:00,
2013-10-07 10:36:00,58.5,45.1,29.15,WSW,239,2.2,2.2,61,0.00,,,0.00,VWS V13.01,2013-10-07 15:36:00,
2013-10-07 10:37:00,59.0,45.6,29.15,South,180,3.1,3.1,61,0.00,,,0.00,VWS V13.01,2013-10-07 15:37:00,
2013-10-07 10:39:00,59.2,45.8,29.15,South,187,2.7,2.7,61,0.00,,,0.00,VWS V13.01,2013-10-07 15:39:00,
2013-10-07 10:40:00,60.1,46.6,29.15,South,181,5.8,5.8,61,0.00,,,0.00,VWS V13.01,2013-10-07 15:40:00,
2013-10-07 10:41:00,60.4,46.9,29.15,South,181,4.9,4.9,61,0.00,,,0.00,VWS V13.01,2013-10-07 15:41:00,
2013-10-07 10:42:00,60.3,46.8,29.15,SSW,203,5.4,5.4,61,0.00,,,0.00,VWS V13.01,2013-10-07 15:42:00,
2013-10-07 10:44:00,59.9,46.4,29.15,SSW,194,3.1,3.1,61,0.00,,,0.00,VWS V13.01,2013-10-07 15:44:00,
2013-10-07 10:45:00,59.7,46.3,29.15,SSW,194,0.0,0.0,61,0.00,,,0.00,VWS V13.01,2013-10-07 15:45:00,
2013-10-07 10:46:00,60.1,46.6,29.15,SSW,193,0.0,0.0,61,0.00,,,0.00,VWS V13.01,2013-10-07 15:46:00,
2013-10-07 10:48:00,61.7,48.1,29.15,South,189,4.0,4.0,61,0.00,,,0.00,VWS V13.01,2013-10-07 15:48:00,
2013-10-07 10:49:00,61.7,48.1,29.15,South,189,0.0,0.0,61,0.00,,,0.00,VWS V13.01,2013-10-07 15:49:00,
2013-10-07 10:50:00,61.9,48.3,29.15,WNW,294,2.7,2.7,61,0.00,,,0.00,VWS V13.01,2013-10-07 15:50:00,
2013-10-07 10:51:00,62.1,48.5,29.15,WNW,289,0.0,0.0,61,0.00,,,0.00,VWS V13.01,2013-10-07 15:51:00,
2013-10-07 10:53:00,62.1,48.5,29.15,West,277,0.0,0.0,61,0.00,,,0.00,VWS V13.01,2013-10-07 15:53:00,
2013-10-07 10:54:00,62.8,46.4,29.18,South,177,5.4,5.4,55,0.00,,,0.00,VWS V13.01,2013-10-07 15:54:00,
2013-10-07 10:55:00,62.1,48.5,29.18,SSW,203,3.1,3.1,61,0.00,,,0.00,VWS V13.01,2013-10-07 15:55:00,
2013-10-07 10:56:00,62.2,48.6,29.18,South,182,5.8,5.8,61,0.00,,,0.00,VWS V13.01,2013-10-07 15:56:00,
2013-10-07 10:58:00,61.2,47.6,29.18,WNW,292,3.1,3.1,61,0.00,,,0.00,VWS V13.01,2013-10-07 15:58:00,
2013-10-07 10:59:00,61.0,47.5,29.18,WNW,290,5.4,5.4,61,0.00,,,0.00,VWS V13.01,2013-10-07 15:59:00,
2013-10-07 11:00:00,60.6,47.1,29.18,West,276,5.8,5.8,61,0.00,,,0.00,VWS V13.01,2013-10-07 16:00:00,
2013-10-07 11:02:00,60.6,47.1,29.18,WNW,297,0.0,0.0,61,0.00,,,0.00,VWS V13.01,2013-10-07 16:02:00,
2013-10-07 11:03:00,60.4,46.9,29.18,WNW,295,4.0,4.0,61,0.00,,,0.00,VWS V13.01,2013-10-07 16:03:00,
2013-10-07 11:04:00,61.0,47.5,29.18,South,190,4.0,4.0,61,0.00,,,0.00,VWS V13.01,2013-10-07 16:04:00,
2013-10-07 11:05:00,61.3,47.8,29.18,South,187,5.8,5.8,61,0.00,,,0.00,VWS V13.01,2013-10-07 16:05:00,
2013-10-07 11:07:00,60.8,47.3,29.18,South,185,5.4,5.4,61,0.00,,,0.00,VWS V13.01,2013-10-07 16:07:00,
2013-10-07 11:08:00,60.4,46.9,29.18,South,188,4.0,4.0,61,0.00,,,0.00,VWS V13.01,2013-10-07 16:08:00,
2013-10-07 11:09:00,60.1,46.6,29.18,South,187,4.9,4.9,61,0.00,,,0.00,VWS V13.01,2013-10-07 16:09:00,
2013-10-07 11:10:00,60.1,46.6,29.18,South,172,5.4,5.4,61,0.00,,,0.00,VWS V13.01,2013-10-07 16:10:00,
2013-10-07 11:11:00,60.1,46.6,29.18,South,172,5.4,5.4,61,0.00,,,0.00,VWS V13.01,2013-10-07 16:11:00,
2013-10-07 11:12:00,60.1,46.6,29.18,SSW,203,0.0,0.0,61,0.00,,,0.00,VWS V13.01,2013-10-07 16:12:00,
2013-10-07 11:13:00,60.1,46.6,29.18,NW,311,2.2,2.2,61,0.00,,,0.00,VWS V13.01,2013-10-07 16:13:00,
2013-10-07 11:14:00,60.1,46.6,29.18,WNW,293,2.7,2.7,61,0.00,,,0.00,VWS V13.01,2013-10-07 16:14:00,
2013-10-07 11:16:00,60.1,46.6,29.18,WNW,293,0.0,0.0,61,0.00,,,0.00,VWS V13.01,2013-10-07 16:16:00,
2013-10-07 11:17:00,60.1,46.6,29.18,WNW,293,0.0,0.0,61,0.00,,,0.00,VWS V13.01,2013-10-07 16:17:00,
2013-10-07 11:18:00,60.1,46.6,29.18,NW,320,0.0,0.0,61,0.00,,,0.00,VWS V13.01,2013-10-07 16:18:00,
2013-10-07 11:19:00,60.1,46.6,29.18,NW,320,0.0,0.0,61,0.00,,,0.00,VWS V13.01,2013-10-07 16:19:00,
2013-10-07 11:21:00,60.1,46.6,29.18,SSW,198,0.0,0.0,61,0.00,,,0.00,VWS V13.01,2013-10-07 16:21:00,
2013-10-07 11:22:00,60.3,46.8,29.18,SSW,198,0.0,0.0,61,0.00,,,0.00,VWS V13.01,2013-10-07 16:22:00,
2013-10-07 11:23:00,60.4,46.9,29.18,NNW,346,0.0,0.0,61,0.00,,,0.00,VWS V13.01,2013-10-07 16:23:00,
2013-10-07 11:24:00,60.4,46.9,29.18,NNW,346,0.0,0.0,61,0.00,,,0.00,VWS V13.01,2013-10-07 16:24:00,
2013-10-07 11:26:00,60.4,46.9,29.18,NNW,346,0.0,0.0,61,0.00,,,0.00,VWS V13.01,2013-10-07 16:26:00,
2013-10-07 11:27:00,60.6,47.1,29.18,WNW,285,4.0,4.0,61,0.00,,,0.00,VWS V13.01,2013-10-07 16:27:00,
2013-10-07 11:28:00,60.6,47.1,29.18,West,280,2.2,2.2,61,0.00,,,0.00,VWS V13.01,2013-10-07 16:28:00,
2013-10-07 11:29:00,60.8,47.3,29.18,NW,308,5.8,5.8,61,0.00,,,0.00,VWS V13.01,2013-10-07 16:29:00,
2013-10-07 11:31:00,60.6,47.1,29.18,South,176,0.0,0.0,61,0.00,,,0.00,VWS V13.01,2013-10-07 16:31:00,
2013-10-07 11:32:00,60.6,47.1,29.18,South,187,4.5,4.5,61,0.00,,,0.00,VWS V13.01,2013-10-07 16:32:00,
2013-10-07 11:33:00,60.8,47.3,29.18,SSW,195,0.0,0.0,61,0.00,,,0.00,VWS V13.01,2013-10-07 16:33:00,
2013-10-07 11:34:00,61.0,47.5,29.18,SSW,195,0.0,0.0,61,0.00,,,0.00,VWS V13.01,2013-10-07 16:34:00,
2013-10-07 11:36:00,61.2,47.6,29.18,WNW,293,0.0,0.0,61,0.00,,,0.00,VWS V13.01,2013-10-07 16:36:00,
2013-10-07 11:37:00,61.2,47.6,29.18,WNW,293,0.0,0.0,61,0.00,,,0.00,VWS V13.01,2013-10-07 16:37:00,
2013-10-07 11:38:00,61.2,47.6,29.18,SSW,197,0.0,0.0,61,0.00,,,0.00,VWS V13.01,2013-10-07 16:38:00,
2013-10-07 11:39:00,61.5,48.0,29.18,SSW,202,0.0,0.0,61,0.00,,,0.00,VWS V13.01,2013-10-07 16:39:00,
2013-10-07 11:41:00,61.9,48.3,29.18,SSW,201,0.0,0.0,61,0.00,,,0.00,VWS V13.01,2013-10-07 16:41:00,
2013-10-07 11:42:00,62.2,48.6,29.18,SSW,201,0.0,0.0,61,0.00,,,0.00,VWS V13.01,2013-10-07 16:42:00,
2013-10-07 11:43:00,62.4,48.8,29.18,WNW,296,5.4,5.4,61,0.00,,,0.00,VWS V13.01,2013-10-07 16:43:00,
2013-10-07 11:44:00,62.8,46.4,29.18,WNW,294,3.6,3.6,55,0.00,,,0.00,VWS V13.01,2013-10-07 16:44:00,
2013-10-07 11:46:00,63.0,46.6,29.18,WNW,294,0.0,0.0,55,0.00,,,0.00,VWS V13.01,2013-10-07 16:46:00,
2013-10-07 11:47:00,62.6,46.2,29.18,SSW,213,0.0,0.0,55,0.00,,,0.00,VWS V13.01,2013-10-07 16:47:00,
2013-10-07 11:48:00,63.0,46.6,29.18,SSW,208,2.7,2.7,55,0.00,,,0.00,VWS V13.01,2013-10-07 16:48:00,
2013-10-07 11:49:00,63.1,46.7,29.18,South,180,2.2,2.2,55,0.00,,,0.00,VWS V13.01,2013-10-07 16:49:00,
2013-10-07 11:51:00,63.9,47.4,29.18,WNW,286,0.0,0.0,55,0.00,,,0.00,VWS V13.01,2013-10-07 16:51:00,
2013-10-07 11:52:00,64.2,47.7,29.18,WNW,286,0.0,0.0,55,0.00,,,0.00,VWS V13.01,2013-10-07 16:52:00,
2013-10-07 11:53:00,64.2,47.7,29.18,WNW,286,0.0,0.0,55,0.00,,,0.00,VWS V13.01,2013-10-07 16:53:00,
2013-10-07 11:54:00,63.5,47.1,29.18,South,185,0.0,0.0,55,0.00,,,0.00,VWS V13.01,2013-10-07 16:54:00,
2013-10-07 11:56:00,64.2,47.7,29.18,West,272,3.6,3.6,55,0.00,,,0.00,VWS V13.01,2013-10-07 16:56:00,
2013-10-07 11:57:00,64.4,47.9,29.18,WNW,287,2.7,2.7,55,0.00,,,0.00,VWS V13.01,2013-10-07 16:57:00,
2013-10-07 11:58:00,64.6,48.1,29.18,WNW,287,0.0,0.0,55,0.00,,,0.00,VWS V13.01,2013-10-07 16:58:00,
2013-10-07 11:59:00,64.2,47.7,29.18,SSW,194,2.2,2.2,55,0.00,,,0.00,VWS V13.01,2013-10-07 16:59:00,
2013-10-07 12:01:00,65.3,48.7,29.18,West,278,0.0,0.0,55,0.00,,,0.00,VWS V13.01,2013-10-07 17:01:00,
2013-10-07 12:02:00,65.3,48.7,29.18,WNW,297,0.0,0.0,55,0.00,,,0.00,VWS V13.01,2013-10-07 17:02:00,
2013-10-07 12:03:00,65.5,48.9,29.18,WNW,298,0.0,0.0,55,0.00,,,0.00,VWS V13.01,2013-10-07 17:03:00,
2013-10-07 12:04:00,64.8,48.2,29.18,NNE,29,0.0,0.0,55,0.00,,,0.00,VWS V13.01,2013-10-07 17:04:00,
2013-10-07 12:07:00,64.4,47.9,29.18,SSW,194,2.7,2.7,55,0.00,,,0.00,VWS V13.01,2013-10-07 17:07:00,
2013-10-07 12:08:00,64.9,48.4,29.18,SSW,194,0.0,0.0,55,0.00,,,0.00,VWS V13.01,2013-10-07 17:08:00,
2013-10-07 12:09:00,64.9,48.4,29.18,SSW,194,0.0,0.0,55,0.00,,,0.00,VWS V13.01,2013-10-07 17:09:00,
2013-10-07 12:12:00,65.3,48.7,29.18,South,179,4.0,4.0,55,0.00,,,0.00,VWS V13.01,2013-10-07 17:12:00,
2013-10-07 12:13:00,65.3,48.7,29.18,South,179,4.0,4.0,55,0.00,,,0.00,VWS V13.01,2013-10-07 17:13:00,
2013-10-07 12:14:00,66.6,46.8,29.18,South,179,0.0,0.0,49,0.00,,,0.00,VWS V13.01,2013-10-07 17:14:00,
2013-10-07 12:17:00,67.3,47.5,29.18,WNW,302,0.0,0.0,49,0.00,,,0.00,VWS V13.01,2013-10-07 17:17:00,
2013-10-07 12:18:00,67.3,47.5,29.18,WNW,302,0.0,0.0,49,0.00,,,0.00,VWS V13.01,2013-10-07 17:18:00,
2013-10-07 12:19:00,67.6,47.8,29.18,WNW,293,0.0,0.0,49,0.00,,,0.00,VWS V13.01,2013-10-07 17:19:00,
2013-10-07 12:20:00,67.6,47.8,29.18,WSW,237,0.0,0.0,49,0.00,,,0.00,VWS V13.01,2013-10-07 17:20:00,
2013-10-07 12:23:00,68.0,48.2,29.18,South,182,0.0,0.0,49,0.00,,,0.00,VWS V13.01,2013-10-07 17:23:00,
2013-10-07 12:24:00,68.2,48.3,29.15,South,177,0.0,0.0,49,0.00,,,0.00,VWS V13.01,2013-10-07 17:24:00,
2013-10-07 12:25:00,68.7,48.8,29.15,South,177,0.0,0.0,49,0.00,,,0.00,VWS V13.01,2013-10-07 17:25:00,
2013-10-07 12:28:00,68.7,48.8,29.15,South,176,4.0,4.0,49,0.00,,,0.00,VWS V13.01,2013-10-07 17:28:00,
2013-10-07 12:29:00,69.3,49.3,29.15,South,186,4.0,4.0,49,0.00,,,0.00,VWS V13.01,2013-10-07 17:29:00,
2013-10-07 12:30:00,69.3,49.3,29.15,South,178,5.4,5.4,49,0.00,,,0.00,VWS V13.01,2013-10-07 17:30:00,
2013-10-07 12:33:00,70.2,50.1,29.15,South,190,0.0,0.0,49,0.00,,,0.00,VWS V13.01,2013-10-07 17:33:00,
2013-10-07 12:34:00,70.2,50.1,29.15,NW,305,0.0,0.0,49,0.00,,,0.00,VWS V13.01,2013-10-07 17:34:00,
2013-10-07 12:35:00,70.7,50.6,29.15,WSW,256,0.0,0.0,49,0.00,,,0.00,VWS V13.01,2013-10-07 17:35:00,
2013-10-07 12:38:00,71.4,51.3,29.15,WNW,286,0.0,0.0,49,0.00,,,0.00,VWS V13.01,2013-10-07 17:38:00,
2013-10-07 12:39:00,71.6,47.9,29.15,WNW,286,0.0,0.0,43,0.00,,,0.00,VWS V13.01,2013-10-07 17:39:00,
2013-10-07 12:40:00,72.0,57.8,29.18,South,187,4.5,4.5,61,0.00,,,0.00,VWS V13.01,2013-10-07 17:40:00,
2013-10-07 12:43:00,70.3,50.3,29.18,SSW,203,0.0,0.0,49,0.00,,,0.00,VWS V13.01,2013-10-07 17:43:00,
2013-10-07 12:44:00,71.6,47.9,29.18,SSW,203,0.0,0.0,43,0.00,,,0.00,VWS V13.01,2013-10-07 17:44:00,
2013-10-07 12:45:00,72.0,48.3,29.18,SSW,203,0.0,0.0,43,0.00,,,0.00,VWS V13.01,2013-10-07 17:45:00,
2013-10-07 12:46:00,72.1,48.4,29.18,SSW,203,0.0,0.0,43,0.00,,,0.00,VWS V13.01,2013-10-07 17:46:00,
2013-10-07 12:48:00,73.6,56.4,29.18,SSW,212,0.0,0.0,55,0.00,,,0.00,VWS V13.01,2013-10-07 17:48:00,
2013-10-07 12:49:00,74.3,57.1,29.18,NW,310,0.0,0.0,55,0.00,,,0.00,VWS V13.01,2013-10-07 17:49:00,
2013-10-07 12:50:00,74.5,57.3,29.18,NW,310,0.0,0.0,55,0.00,,,0.00,VWS V13.01,2013-10-07 17:50:00,
2013-10-07 12:51:00,75.0,57.8,29.18,South,169,0.0,0.0,55,0.00,,,0.00,VWS V13.01,2013-10-07 17:51:00,
2013-10-07 12:53:00,75.7,58.4,29.18,SSW,201,0.0,0.0,55,0.00,,,0.00,VWS V13.01,2013-10-07 17:53:00,
2013-10-07 12:54:00,76.1,58.8,29.18,SSW,201,0.0,0.0,55,0.00,,,0.00,VWS V13.01,2013-10-07 17:54:00,
2013-10-07 12:55:00,76.5,59.1,29.18,SSW,201,0.0,0.0,55,0.00,,,0.00,VWS V13.01,2013-10-07 17:55:00,
2013-10-07 12:57:00,76.6,59.3,29.18,ESE,114,0.0,0.0,55,0.00,,,0.00,VWS V13.01,2013-10-07 17:57:00,
2013-10-07 12:58:00,76.3,58.9,29.18,South,186,0.0,0.0,55,0.00,,,0.00,VWS V13.01,2013-10-07 17:58:00,
2013-10-07 12:59:00,76.5,59.1,29.18,South,185,0.0,0.0,55,0.00,,,0.00,VWS V13.01,2013-10-07 17:59:00,
2013-10-07 13:00:00,77.7,60.3,29.18,South,185,0.0,0.0,55,0.00,,,0.00,VWS V13.01,2013-10-07 18:00:00,
2013-10-07 13:02:00,78.4,61.0,29.18,South,173,3.6,3.6,55,0.00,,,0.00,VWS V13.01,2013-10-07 18:02:00,
2013-10-07 13:04:00,78.1,60.6,29.18,South,183,3.6,3.6,55,0.00,,,0.00,VWS V13.01,2013-10-07 18:04:00,
2013-10-07 13:05:00,78.1,60.6,29.18,South,180,4.9,4.9,55,0.00,,,0.00,VWS V13.01,2013-10-07 18:05:00,
2013-10-07 13:07:00,75.2,57.9,29.18,South,183,4.0,4.0,55,0.00,,,0.00,VWS V13.01,2013-10-07 18:07:00,
2013-10-07 13:09:00,76.8,59.5,29.18,South,184,0.0,0.0,55,0.00,,,0.00,VWS V13.01,2013-10-07 18:09:00,
2013-10-07 13:10:00,77.2,59.8,29.15,South,186,0.0,0.0,55,0.00,,,0.00,VWS V13.01,2013-10-07 18:10:00,
2013-10-07 13:12:00,78.6,61.1,29.15,SSW,199,0.0,0.0,55,0.00,,,0.00,VWS V13.01,2013-10-07 18:12:00,
2013-10-07 13:14:00,79.7,58.9,29.15,SSW,199,0.0,0.0,49,0.00,,,0.00,VWS V13.01,2013-10-07 18:14:00,
2013-10-07 13:15:00,80.1,59.2,29.15,WNW,284,5.4,5.4,49,0.00,,,0.00,VWS V13.01,2013-10-07 18:15:00,
2013-10-07 13:17:00,80.8,59.9,29.15,West,277,0.0,0.0,49,0.00,,,0.00,VWS V13.01,2013-10-07 18:17:00,
2013-10-07 13:19:00,82.0,61.0,29.15,SSW,202,0.0,0.0,49,0.00,,,0.00,VWS V13.01,2013-10-07 18:19:00,
2013-10-07 13:20:00,82.4,57.7,29.15,South,178,2.2,2.2,43,0.00,,,0.00,VWS V13.01,2013-10-07 18:20:00,
2013-10-07 13:22:00,81.1,60.2,29.15,South,172,2.7,2.7,49,0.00,,,0.00,VWS V13.01,2013-10-07 18:22:00,
2013-10-07 13:24:00,81.7,60.7,29.15,South,172,0.0,0.0,49,0.00,,,0.00,VWS V13.01,2013-10-07 18:24:00,
2013-10-07 13:25:00,81.1,60.2,29.15,WNW,301,4.0,4.0,49,0.00,,,0.00,VWS V13.01,2013-10-07 18:25:00,
2013-10-07 13:27:00,81.9,60.8,29.15,South,181,0.0,0.0,49,0.00,,,0.00,VWS V13.01,2013-10-07 18:27:00,
2013-10-07 13:29:00,80.6,59.7,29.15,South,187,5.8,5.8,49,0.00,,,0.00,VWS V13.01,2013-10-07 18:29:00,
2013-10-07 13:30:00,79.3,58.5,29.15,South,178,3.1,3.1,49,0.00,,,0.00,VWS V13.01,2013-10-07 18:30:00,
2013-10-07 13:32:00,81.0,60.0,29.15,SW,225,0.0,0.0,49,0.00,,,0.00,VWS V13.01,2013-10-07 18:32:00,
2013-10-07 13:34:00,80.2,59.4,29.15,WNW,283,5.4,5.4,49,0.00,,,0.00,VWS V13.01,2013-10-07 18:34:00,
2013-10-07 13:35:00,80.4,59.5,29.15,NW,304,0.0,0.0,49,0.00,,,0.00,VWS V13.01,2013-10-07 18:35:00,
2013-10-07 13:36:00,80.6,59.7,29.15,WNW,298,0.0,0.0,49,0.00,,,0.00,VWS V13.01,2013-10-07 18:36:00,
2013-10-07 13:37:00,81.0,60.0,29.15,South,179,6.3,6.3,49,0.00,,,0.00,VWS V13.01,2013-10-07 18:37:00,
2013-10-07 13:39:00,81.1,60.2,29.15,WSW,246,0.0,0.0,49,0.00,,,0.00,VWS V13.01,2013-10-07 18:39:00,
2013-10-07 13:40:00,80.4,59.5,29.15,WNW,291,5.8,5.8,49,0.00,,,0.00,VWS V13.01,2013-10-07 18:40:00,
2013-10-07 13:42:00,80.1,59.2,29.15,WNW,289,3.1,3.1,49,0.00,,,0.00,VWS V13.01,2013-10-07 18:42:00,
2013-10-07 13:43:00,79.9,59.0,29.15,WNW,282,3.1,3.1,49,0.00,,,0.00,VWS V13.01,2013-10-07 18:43:00,
2013-10-07 13:44:00,80.1,59.2,29.15,WSW,242,0.0,0.0,49,0.00,,,0.00,VWS V13.01,2013-10-07 18:44:00,
2013-10-07 13:45:00,81.0,60.0,29.15,WSW,242,0.0,0.0,49,0.00,,,0.00,VWS V13.01,2013-10-07 18:45:00,
2013-10-07 13:47:00,79.7,58.9,29.15,WNW,294,2.7,2.7,49,0.00,,,0.00,VWS V13.01,2013-10-07 18:47:00,
2013-10-07 13:48:00,79.7,58.9,29.15,WNW,294,2.2,2.2,49,0.00,,,0.00,VWS V13.01,2013-10-07 18:48:00,
2013-10-07 13:49:00,80.1,59.2,29.15,NNE,19,0.0,0.0,49,0.00,,,0.00,VWS V13.01,2013-10-07 18:49:00,
2013-10-07 13:50:00,80.6,59.7,29.15,NNE,19,0.0,0.0,49,0.00,,,0.00,VWS V13.01,2013-10-07 18:50:00,
2013-10-07 13:52:00,79.3,58.5,29.15,WNW,283,2.2,2.2,49,0.00,,,0.00,VWS V13.01,2013-10-07 18:52:00,
2013-10-07 13:53:00,79.2,58.4,29.15,WNW,283,0.0,0.0,49,0.00,,,0.00,VWS V13.01,2013-10-07 18:53:00,
2013-10-07 13:54:00,80.6,59.7,29.15,South,188,0.0,0.0,49,0.00,,,0.00,VWS V13.01,2013-10-07 18:54:00,
2013-10-07 13:55:00,79.5,58.7,29.15,WNW,292,0.0,0.0,49,0.00,,,0.00,VWS V13.01,2013-10-07 18:55:00,
2013-10-07 13:57:00,78.6,61.1,29.15,WNW,300,3.6,3.6,55,0.00,,,0.00,VWS V13.01,2013-10-07 18:57:00,
2013-10-07 13:58:00,78.1,60.6,29.15,WNW,300,2.2,2.2,55,0.00,,,0.00,VWS V13.01,2013-10-07 18:58:00,
2013-10-07 13:59:00,77.2,59.8,29.15,WNW,300,0.0,0.0,55,0.00,,,0.00,VWS V13.01,2013-10-07 18:59:00,
2013-10-07 14:00:00,76.1,48.0,29.15,SSW,207,0.0,0.0,37,0.00,,,0.00,VWS V13.01,2013-10-07 19:00:00,
2013-10-07 14:01:00,76.1,48.0,29.15,SW,215,2.7,2.7,37,0.00,,,0.00,VWS V13.01,2013-10-07 19:01:00,
2013-10-07 14:02:00,74.8,50.9,29.15,SSW,203,3.6,3.6,43,0.00,,,0.00,VWS V13.01,2013-10-07 19:02:00,
2013-10-07 14:03:00,74.3,50.4,29.15,South,187,0.0,0.0,43,0.00,,,0.00,VWS V13.01,2013-10-07 19:03:00,
2013-10-07 14:04:00,74.3,50.4,29.15,West,277,0.0,0.0,43,0.00,,,0.00,VWS V13.01,2013-10-07 19:04:00,
2013-10-07 14:05:00,74.1,50.2,29.15,SSE,160,3.6,3.6,43,0.00,,,0.00,VWS V13.01,2013-10-07 19:05:00,
2013-10-07 14:06:00,74.1,50.2,29.15,SSE,160,3.6,3.6,43,0.00,,,0.00,VWS V13.01,2013-10-07 19:06:00,
2013-10-07 14:08:00,73.8,49.9,29.15,WNW,286,0.0,0.0,43,0.00,,,0.00,VWS V13.01,2013-10-07 19:08:00,
2013-10-07 14:09:00,72.9,49.1,29.15,West,279,3.1,3.1,43,0.00,,,0.00,VWS V13.01,2013-10-07 19:09:00,
2013-10-07 14:10:00,72.9,49.1,29.15,NW,320,3.6,3.6,43,0.00,,,0.00,VWS V13.01,2013-10-07 19:10:00,
2013-10-07 14:11:00,72.7,48.9,29.15,WNW,285,0.0,0.0,43,0.00,,,0.00,VWS V13.01,2013-10-07 19:11:00,
2013-10-07 14:13:00,72.0,48.3,29.15,NW,306,0.0,0.0,43,0.00,,,0.00,VWS V13.01,2013-10-07 19:13:00,
2013-10-07 14:15:00,71.2,51.1,29.15,WSW,238,0.0,0.0,49,0.00,,,0.00,VWS V13.01,2013-10-07 19:15:00,
2013-10-07 14:16:00,71.1,51.0,29.15,South,190,4.5,4.5,49,0.00,,,0.00,VWS V13.01,2013-10-07 19:16:00,
2013-10-07 14:18:00,69.4,49.5,29.15,South,186,3.6,3.6,49,0.00,,,0.00,VWS V13.01,2013-10-07 19:18:00,
2013-10-07 14:19:00,69.4,49.5,29.15,South,186,2.2,2.2,49,0.00,,,0.00,VWS V13.01,2013-10-07 19:19:00,
2013-10-07 14:20:00,69.6,49.6,29.15,South,186,0.0,0.0,49,0.00,,,0.00,VWS V13.01,2013-10-07 19:20:00,
2013-10-07 14:21:00,69.6,49.6,29.15,SE,134,0.0,0.0,49,0.00,,,0.00,VWS V13.01,2013-10-07 19:21:00,
2013-10-07 14:23:00,69.6,49.6,29.15,WNW,296,0.0,0.0,49,0.00,,,0.00,VWS V13.01,2013-10-07 19:23:00,
2013-10-07 14:24:00,69.6,49.6,29.15,West,273,4.0,4.0,49,0.00,,,0.00,VWS V13.01,2013-10-07 19:24:00,
2013-10-07 14:25:00,69.6,49.6,29.15,WNW,283,3.1,3.1,49,0.00,,,0.00,VWS V13.01,2013-10-07 19:25:00,
2013-10-07 14:26:00,69.4,49.5,29.15,West,275,0.0,0.0,49,0.00,,,0.00,VWS V13.01,2013-10-07 19:26:00,
2013-10-07 14:28:00,69.3,49.3,29.15,WNW,285,2.7,2.7,49,0.00,,,0.00,VWS V13.01,2013-10-07 19:28:00,
2013-10-07 14:29:00,69.3,49.3,29.15,WSW,237,2.2,2.2,49,0.00,,,0.00,VWS V13.01,2013-10-07 19:29:00,
2013-10-07 14:30:00,69.1,49.1,29.15,WNW,298,2.2,2.2,49,0.00,,,0.00,VWS V13.01,2013-10-07 19:30:00,
2013-10-07 14:31:00,69.1,49.1,29.15,WNW,286,0.0,0.0,49,0.00,,,0.00,VWS V13.01,2013-10-07 19:31:00,
2013-10-07 14:33:00,69.1,49.1,29.15,SSW,194,0.0,0.0,49,0.00,,,0.00,VWS V13.01,2013-10-07 19:33:00,
2013-10-07 14:34:00,69.1,49.1,29.15,WNW,289,0.0,0.0,49,0.00,,,0.00,VWS V13.01,2013-10-07 19:34:00,
2013-10-07 14:35:00,69.1,49.1,29.15,SSW,209,0.0,0.0,49,0.00,,,0.00,VWS V13.01,2013-10-07 19:35:00,
2013-10-07 14:36:00,69.1,49.1,29.15,SSW,194,0.0,0.0,49,0.00,,,0.00,VWS V13.01,2013-10-07 19:36:00,
2013-10-07 14:38:00,69.3,49.3,29.15,South,178,0.0,0.0,49,0.00,,,0.00,VWS V13.01,2013-10-07 19:38:00,
2013-10-07 14:39:00,69.4,49.5,29.15,South,169,3.6,3.6,49,0.00,,,0.00,VWS V13.01,2013-10-07 19:39:00,
2013-10-07 14:40:00,69.8,49.8,29.15,SSW,198,4.0,4.0,49,0.00,,,0.00,VWS V13.01,2013-10-07 19:40:00,
2013-10-07 14:41:00,69.8,49.8,29.15,SSW,213,2.2,2.2,49,0.00,,,0.00,VWS V13.01,2013-10-07 19:41:00,
2013-10-07 14:43:00,69.4,49.5,29.15,South,190,3.6,3.6,49,0.00,,,0.00,VWS V13.01,2013-10-07 19:43:00,
2013-10-07 14:44:00,69.6,49.6,29.15,South,188,6.3,6.3,49,0.00,,,0.00,VWS V13.01,2013-10-07 19:44:00,
2013-10-07 14:45:00,69.3,49.3,29.15,WNW,286,3.1,3.1,49,0.00,,,0.00,VWS V13.01,2013-10-07 19:45:00,
2013-10-07 14:46:00,69.3,49.3,29.15,NW,307,5.4,5.4,49,0.00,,,0.00,VWS V13.01,2013-10-07 19:46:00,
2013-10-07 14:48:00,69.1,49.1,29.15,South,177,4.9,4.9,49,0.00,,,0.00,VWS V13.01,2013-10-07 19:48:00,
2013-10-07 14:49:00,69.1,49.1,29.15,South,183,3.1,3.1,49,0.00,,,0.00,VWS V13.01,2013-10-07 19:49:00,
2013-10-07 14:50:00,69.3,49.3,29.15,SW,219,5.8,5.8,49,0.00,,,0.00,VWS V13.01,2013-10-07 19:50:00,
2013-10-07 14:51:00,69.3,49.3,29.15,South,181,3.6,3.6,49,0.00,,,0.00,VWS V13.01,2013-10-07 19:51:00,
2013-10-07 14:54:00,69.3,49.3,29.15,South,185,4.0,4.0,49,0.00,,,0.00,VWS V13.01,2013-10-07 19:54:00,
2013-10-07 14:56:00,69.3,49.3,29.15,SW,219,0.0,0.0,49,0.00,,,0.00,VWS V13.01,2013-10-07 19:56:00,
2013-10-07 14:59:00,69.4,49.5,29.15,WNW,288,0.0,0.0,49,0.00,,,0.00,VWS V13.01,2013-10-07 19:59:00,
2013-10-07 15:00:00,69.4,49.5,29.15,SSW,210,3.6,3.6,49,0.00,,,0.00,VWS V13.01,2013-10-07 20:00:00,
2013-10-07 15:01:00,69.4,49.5,29.15,South,170,0.0,0.0,49,0.00,,,0.00,VWS V13.01,2013-10-07 20:01:00,
2013-10-07 15:02:00,69.3,49.3,29.15,South,170,0.0,0.0,49,0.00,,,0.00,VWS V13.01,2013-10-07 20:02:00,
2013-10-07 15:04:00,69.3,49.3,29.15,South,170,0.0,0.0,49,0.00,,,0.00,VWS V13.01,2013-10-07 20:04:00,
2013-10-07 15:05:00,69.3,49.3,29.15,WSW,239,2.7,2.7,49,0.00,,,0.00,VWS V13.01,2013-10-07 20:05:00,
2013-10-07 15:06:00,69.3,49.3,29.15,West,279,3.6,3.6,49,0.00,,,0.00,VWS V13.01,2013-10-07 20:06:00,
2013-10-07 15:07:00,69.3,49.3,29.15,West,279,0.0,0.0,49,0.00,,,0.00,VWS V13.01,2013-10-07 20:07:00,
2013-10-07 15:09:00,69.3,49.3,29.15,SW,217,3.6,3.6,49,0.00,,,0.00,VWS V13.01,2013-10-07 20:09:00,
2013-10-07 15:10:00,69.3,49.3,29.15,SSW,194,4.0,4.0,49,0.00,,,0.00,VWS V13.01,2013-10-07 20:10:00,
2013-10-07 15:11:00,69.3,49.3,29.15,SW,214,0.0,0.0,49,0.00,,,0.00,VWS V13.01,2013-10-07 20:11:00,
2013-10-07 15:12:00,69.3,49.3,29.15,SW,214,0.0,0.0,49,0.00,,,0.00,VWS V13.01,2013-10-07 20:12:00,
2013-10-07 15:13:00,69.3,49.3,29.15,SW,226,0.0,0.0,49,0.00,,,0.00,VWS V13.01,2013-10-07 20:13:00,
2013-10-07 15:14:00,69.3,49.3,29.15,West,275,0.0,0.0,49,0.00,,,0.00,VWS V13.01,2013-10-07 20:14:00,
2013-10-07 15:15:00,69.3,49.3,29.15,SW,229,0.0,0.0,49,0.00,,,0.00,VWS V13.01,2013-10-07 20:15:00,
2013-10-07 15:16:00,69.3,49.3,29.15,WNW,293,5.4,5.4,49,0.00,,,0.00,VWS V13.01,2013-10-07 20:16:00,
2013-10-07 15:17:00,69.3,49.3,29.15,WNW,293,0.0,0.0,49,0.00,,,0.00,VWS V13.01,2013-10-07 20:17:00,
2013-10-07 15:18:00,69.1,49.1,29.15,South,189,5.4,5.4,49,0.00,,,0.00,VWS V13.01,2013-10-07 20:18:00,
2013-10-07 15:19:00,69.3,49.3,29.15,SSE,166,5.4,5.4,49,0.00,,,0.00,VWS V13.01,2013-10-07 20:19:00,
2013-10-07 15:20:00,69.4,49.5,29.15,SW,220,0.0,0.0,49,0.00,,,0.00,VWS V13.01,2013-10-07 20:20:00,
2013-10-07 15:21:00,69.4,49.5,29.15,West,274,5.8,5.8,49,0.00,,,0.00,VWS V13.01,2013-10-07 20:21:00,
2013-10-07 15:22:00,69.4,49.5,29.15,West,275,3.6,3.6,49,0.00,,,0.00,VWS V13.01,2013-10-07 20:22:00,
2013-10-07 15:23:00,69.3,49.3,29.15,West,269,2.2,2.2,49,0.00,,,0.00,VWS V13.01,2013-10-07 20:23:00,
2013-10-07 15:24:00,69.1,49.1,29.15,South,174,4.9,4.9,49,0.00,,,0.00,VWS V13.01,2013-10-07 20:24:00,
2013-10-07 15:25:00,69.4,49.5,29.15,South,184,4.0,4.0,49,0.00,,,0.00,VWS V13.01,2013-10-07 20:25:00,
2013-10-07 15:26:00,69.4,49.5,29.15,West,279,2.7,2.7,49,0.00,,,0.00,VWS V13.01,2013-10-07 20:26:00,
2013-10-07 15:27:00,69.3,49.3,29.15,West,278,0.0,0.0,49,0.00,,,0.00,VWS V13.01,2013-10-07 20:27:00,
2013-10-07 15:28:00,69.3,49.3,29.15,SSW,210,0.0,0.0,49,0.00,,,0.00,VWS V13.01,2013-10-07 20:28:00,
2013-10-07 15:29:00,69.3,49.3,29.15,South,190,3.6,3.6,49,0.00,,,0.00,VWS V13.01,2013-10-07 20:29:00,
2013-10-07 15:30:00,69.3,49.3,29.15,WNW,298,0.0,0.0,49,0.00,,,0.00,VWS V13.01,2013-10-07 20:30:00,
2013-10-07 15:31:00,69.3,49.3,29.15,WNW,288,4.0,4.0,49,0.00,,,0.00,VWS V13.01,2013-10-07 20:31:00,
2013-10-07 15:32:00,69.3,49.3,29.15,WNW,296,0.0,0.0,49,0.00,,,0.00,VWS V13.01,2013-10-07 20:32:00,
2013-10-07 15:33:00,69.3,49.3,29.15,WNW,283,0.0,0.0,49,0.00,,,0.00,VWS V13.01,2013-10-07 20:33:00,
2013-10-07 15:35:00,69.4,49.5,29.15,West,281,0.0,0.0,49,0.00,,,0.00,VWS V13.01,2013-10-07 20:35:00,
2013-10-07 15:36:00,69.3,49.3,29.15,West,281,0.0,0.0,49,0.00,,,0.00,VWS V13.01,2013-10-07 20:36:00,
2013-10-07 15:37:00,69.3,49.3,29.15,West,281,0.0,0.0,49,0.00,,,0.00,VWS V13.01,2013-10-07 20:37:00,
2013-10-07 15:38:00,69.3,49.3,29.15,West,281,0.0,0.0,49,0.00,,,0.00,VWS V13.01,2013-10-07 20:38:00,
2013-10-07 15:40:00,69.3,49.3,29.12,WNW,290,0.0,0.0,49,0.00,,,0.00,VWS V13.01,2013-10-07 20:40:00,
2013-10-07 15:41:00,69.3,49.3,29.12,WNW,289,6.7,6.7,49,0.00,,,0.00,VWS V13.01,2013-10-07 20:41:00,
2013-10-07 15:42:00,69.3,49.3,29.12,WNW,285,5.4,5.4,49,0.00,,,0.00,VWS V13.01,2013-10-07 20:42:00,
2013-10-07 15:43:00,69.1,49.1,29.12,West,264,2.2,2.2,49,0.00,,,0.00,VWS V13.01,2013-10-07 20:43:00,
2013-10-07 15:45:00,69.1,49.1,29.12,WNW,288,0.0,0.0,49,0.00,,,0.00,VWS V13.01,2013-10-07 20:45:00,
2013-10-07 15:46:00,69.1,49.1,29.12,South,176,0.0,0.0,49,0.00,,,0.00,VWS V13.01,2013-10-07 20:46:00,
2013-10-07 15:47:00,69.1,49.1,29.12,West,268,3.6,3.6,49,0.00,,,0.00,VWS V13.01,2013-10-07 20:47:00,
2013-10-07 15:48:00,69.1,49.1,29.12,West,273,3.6,3.6,49,0.00,,,0.00,VWS V13.01,2013-10-07 20:48:00,
2013-10-07 15:50:00,68.9,49.0,29.12,West,276,0.0,0.0,49,0.00,,,0.00,VWS V13.01,2013-10-07 20:50:00,
2013-10-07 15:51:00,68.9,49.0,29.12,West,276,0.0,0.0,49,0.00,,,0.00,VWS V13.01,2013-10-07 20:51:00,
2013-10-07 15:52:00,68.7,48.8,29.12,South,191,0.0,0.0,49,0.00,,,0.00,VWS V13.01,2013-10-07 20:52:00,
2013-10-07 15:53:00,68.9,49.0,29.12,South,182,3.6,3.6,49,0.00,,,0.00,VWS V13.01,2013-10-07 20:53:00,
2013-10-07 15:55:00,69.1,49.1,29.12,SSE,166,0.0,0.0,49,0.00,,,0.00,VWS V13.01,2013-10-07 20:55:00,
2013-10-07 15:56:00,69.1,49.1,29.12,SSW,195,6.3,6.3,49,0.00,,,0.00,VWS V13.01,2013-10-07 20:56:00,
2013-10-07 15:57:00,69.1,49.1,29.12,SSW,213,0.0,0.0,49,0.00,,,0.00,VWS V13.01,2013-10-07 20:57:00,
2013-10-07 15:58:00,69.1,49.1,29.12,SSW,213,0.0,0.0,49,0.00,,,0.00,VWS V13.01,2013-10-07 20:58:00,
2013-10-07 16:00:00,69.4,49.5,29.12,South,183,6.3,6.3,49,0.00,,,0.00,VWS V13.01,2013-10-07 21:00:00,
2013-10-07 16:01:00,69.4,49.5,29.12,South,176,5.4,5.4,49,0.00,,,0.00,VWS V13.01,2013-10-07 21:01:00,
2013-10-07 16:02:00,69.4,49.5,29.12,South,176,2.7,2.7,49,0.00,,,0.00,VWS V13.01,2013-10-07 21:02:00,
2013-10-07 16:03:00,69.4,49.5,29.12,South,184,3.1,3.1,49,0.00,,,0.00,VWS V13.01,2013-10-07 21:03:00,
2013-10-07 16:06:00,69.3,49.3,29.12,South,181,3.1,3.1,49,0.00,,,0.00,VWS V13.01,2013-10-07 21:06:00,
2013-10-07 16:07:00,69.1,49.1,29.12,South,181,0.0,0.0,49,0.00,,,0.00,VWS V13.01,2013-10-07 21:07:00,
2013-10-07 16:08:00,69.1,49.1,29.12,South,191,0.0,0.0,49,0.00,,,0.00,VWS V13.01,2013-10-07 21:08:00,
2013-10-07 16:11:00,69.1,49.1,29.12,SW,216,0.0,0.0,49,0.00,,,0.00,VWS V13.01,2013-10-07 21:11:00,
2013-10-07 16:12:00,69.1,49.1,29.12,SW,216,0.0,0.0,49,0.00,,,0.00,VWS V13.01,2013-10-07 21:12:00,
2013-10-07 16:13:00,69.1,49.1,29.12,SW,216,0.0,0.0,49,0.00,,,0.00,VWS V13.01,2013-10-07 21:13:00,
2013-10-07 16:16:00,68.9,49.0,29.12,SSW,193,0.0,0.0,49,0.00,,,0.00,VWS V13.01,2013-10-07 21:16:00,
2013-10-07 16:17:00,68.9,49.0,29.12,SSW,193,0.0,0.0,49,0.00,,,0.00,VWS V13.01,2013-10-07 21:17:00,
2013-10-07 16:18:00,69.1,49.1,29.12,SSW,193,0.0,0.0,49,0.00,,,0.00,VWS V13.01,2013-10-07 21:18:00,
2013-10-07 16:21:00,69.1,49.1,29.12,South,181,0.0,0.0,49,0.00,,,0.00,VWS V13.01,2013-10-07 21:21:00,
2013-10-07 16:22:00,68.9,49.0,29.12,South,181,0.0,0.0,49,0.00,,,0.00,VWS V13.01,2013-10-07 21:22:00,
2013-10-07 16:23:00,68.9,49.0,29.12,South,181,0.0,0.0,49,0.00,,,0.00,VWS V13.01,2013-10-07 21:23:00,
2013-10-07 16:26:00,68.9,49.0,29.12,WNW,285,4.9,4.9,49,0.00,,,0.00,VWS V13.01,2013-10-07 21:26:00,
2013-10-07 16:28:00,68.9,49.0,29.12,WNW,285,0.0,0.0,49,0.00,,,0.00,VWS V13.01,2013-10-07 21:28:00,
2013-10-07 16:31:00,69.1,49.1,29.12,NW,313,2.7,2.7,49,0.00,,,0.00,VWS V13.01,2013-10-07 21:31:00,
2013-10-07 16:32:00,68.9,49.0,29.12,NW,313,0.0,0.0,49,0.00,,,0.00,VWS V13.01,2013-10-07 21:32:00,
2013-10-07 16:33:00,68.9,49.0,29.12,WNW,297,4.0,4.0,49,0.00,,,0.00,VWS V13.01,2013-10-07 21:33:00,
2013-10-07 16:34:00,68.9,49.0,29.12,WNW,296,0.0,0.0,49,0.00,,,0.00,VWS V13.01,2013-10-07 21:34:00,
2013-10-07 16:36:00,68.9,49.0,29.12,West,278,0.0,0.0,49,0.00,,,0.00,VWS V13.01,2013-10-07 21:36:00,
2013-10-07 16:37:00,68.7,48.8,29.12,SSW,204,6.3,6.3,49,0.00,,,0.00,VWS V13.01,2013-10-07 21:37:00,
2013-10-07 16:38:00,69.1,49.1,29.12,SSW,204,0.0,0.0,49,0.00,,,0.00,VWS V13.01,2013-10-07 21:38:00,
2013-10-07 16:39:00,69.1,49.1,29.12,SSW,204,0.0,0.0,49,0.00,,,0.00,VWS V13.01,2013-10-07 21:39:00,
2013-10-07 16:41:00,69.1,49.1,29.12,West,266,0.0,0.0,49,0.00,,,0.00,VWS V13.01,2013-10-07 21:41:00,
2013-10-07 16:42:00,68.9,49.0,29.12,South,187,0.0,0.0,49,0.00,,,0.00,VWS V13.01,2013-10-07 21:42:00,
2013-10-07 16:43:00,69.3,49.3,29.12,SSW,192,4.0,4.0,49,0.00,,,0.00,VWS V13.01,2013-10-07 21:43:00,
2013-10-07 16:44:00,69.3,49.3,29.12,SSW,210,2.7,2.7,49,0.00,,,0.00,VWS V13.01,2013-10-07 21:44:00,
2013-10-07 16:46:00,69.1,49.1,29.12,South,189,0.0,0.0,49,0.00,,,0.00,VWS V13.01,2013-10-07 21:46:00,
2013-10-07 16:47:00,69.4,49.5,29.12,SSW,193,5.4,5.4,49,0.00,,,0.00,VWS V13.01,2013-10-07 21:47:00,
2013-10-07 16:48:00,69.6,49.6,29.12,South,181,5.8,5.8,49,0.00,,,0.00,VWS V13.01,2013-10-07 21:48:00,
2013-10-07 16:49:00,69.6,49.6,29.12,South,180,4.0,4.0,49,0.00,,,0.00,VWS V13.01,2013-10-07 21:49:00,
2013-10-07 16:51:00,69.8,49.8,29.12,SSW,198,4.0,4.0,49,0.00,,,0.00,VWS V13.01,2013-10-07 21:51:00,
2013-10-07 16:52:00,69.6,49.6,29.12,South,176,5.4,5.4,49,0.00,,,0.00,VWS V13.01,2013-10-07 21:52:00,
2013-10-07 16:53:00,69.6,49.6,29.12,South,185,2.2,2.2,49,0.00,,,0.00,VWS V13.01,2013-10-07 21:53:00,
2013-10-07 16:54:00,69.6,49.6,29.12,SSW,200,0.0,0.0,49,0.00,,,0.00,VWS V13.01,2013-10-07 21:54:00,
2013-10-07 16:57:00,69.1,49.1,29.12,NNW,334,0.0,0.0,49,0.00,,,0.00,VWS V13.01,2013-10-07 21:57:00,
2013-10-07 16:58:00,69.1,49.1,29.12,NW,309,0.0,0.0,49,0.00,,,0.00,VWS V13.01,2013-10-07 21:58:00,
2013-10-07 16:59:00,68.9,49.0,29.12,NW,309,0.0,0.0,49,0.00,,,0.00,VWS V13.01,2013-10-07 21:59:00,
2013-10-07 17:02:00,68.7,48.8,29.12,South,189,0.0,0.0,49,0.00,,,0.00,VWS V13.01,2013-10-07 22:02:00,
2013-10-07 17:04:00,68.7,48.8,29.12,South,189,0.0,0.0,49,0.00,,,0.00,VWS V13.01,2013-10-07 22:04:00,
2013-10-07 17:07:00,68.5,48.6,29.12,WSW,244,0.0,0.0,49,0.00,,,0.00,VWS V13.01,2013-10-07 22:07:00,
2013-10-07 17:08:00,68.5,48.6,29.12,WSW,244,0.0,0.0,49,0.00,,,0.00,VWS V13.01,2013-10-07 22:08:00,
2013-10-07 17:10:00,68.4,48.5,29.12,WSW,243,0.0,0.0,49,0.00,,,0.00,VWS V13.01,2013-10-07 22:10:00,
2013-10-07 17:12:00,68.5,48.6,29.12,WSW,243,0.0,0.0,49,0.00,,,0.00,VWS V13.01,2013-10-07 22:12:00,
2013-10-07 17:13:00,68.4,48.5,29.12,South,185,3.1,3.1,49,0.00,,,0.00,VWS V13.01,2013-10-07 22:13:00,
2013-10-07 17:15:00,68.7,48.8,29.12,South,180,0.0,0.0,49,0.00,,,0.00,VWS V13.01,2013-10-07 22:15:00,
2013-10-07 17:17:00,69.1,49.1,29.12,South,178,5.4,5.4,49,0.00,,,0.00,VWS V13.01,2013-10-07 22:17:00,
2013-10-07 17:18:00,69.1,49.1,29.12,South,191,3.1,3.1,49,0.00,,,0.00,VWS V13.01,2013-10-07 22:18:00,
2013-10-07 17:19:00,68.9,49.0,29.12,SSW,205,0.0,0.0,49,0.00,,,0.00,VWS V13.01,2013-10-07 22:19:00,
2013-10-07 17:20:00,68.9,49.0,29.12,SSW,205,0.0,0.0,49,0.00,,,0.00,VWS V13.01,2013-10-07 22:20:00,
2013-10-07 17:22:00,68.9,49.0,29.12,SSW,205,0.0,0.0,49,0.00,,,0.00,VWS V13.01,2013-10-07 22:22:00,
2013-10-07 17:23:00,68.9,49.0,29.12,SSW,205,0.0,0.0,49,0.00,,,0.00,VWS V13.01,2013-10-07 22:23:00,
2013-10-07 17:24:00,68.7,48.8,29.12,NW,309,0.0,0.0,49,0.00,,,0.00,VWS V13.01,2013-10-07 22:24:00,
2013-10-07 17:25:00,68.7,48.8,29.15,NW,309,0.0,0.0,49,0.00,,,0.00,VWS V13.01,2013-10-07 22:25:00,
2013-10-07 17:27:00,68.2,48.3,29.15,South,172,0.0,0.0,49,0.00,,,0.00,VWS V13.01,2013-10-07 22:27:00,
2013-10-07 17:28:00,68.5,48.6,29.15,South,183,3.6,3.6,49,0.00,,,0.00,VWS V13.01,2013-10-07 22:28:00,
2013-10-07 17:29:00,68.5,48.6,29.15,South,183,0.0,0.0,49,0.00,,,0.00,VWS V13.01,2013-10-07 22:29:00,
2013-10-07 17:30:00,68.5,48.6,29.15,SSW,204,0.0,0.0,49,0.00,,,0.00,VWS V13.01,2013-10-07 22:30:00,
2013-10-07 17:31:00,68.4,48.5,29.15,SSW,204,0.0,0.0,49,0.00,,,0.00,VWS V13.01,2013-10-07 22:31:00,
2013-10-07 17:32:00,68.4,48.5,29.15,SSW,204,0.0,0.0,49,0.00,,,0.00,VWS V13.01,2013-10-07 22:32:00,
2013-10-07 17:33:00,68.4,48.5,29.15,SSW,204,0.0,0.0,49,0.00,,,0.00,VWS V13.01,2013-10-07 22:33:00,
2013-10-07 17:34:00,68.2,48.3,29.15,SSW,203,0.0,0.0,49,0.00,,,0.00,VWS V13.01,2013-10-07 22:34:00,
2013-10-07 17:35:00,68.2,48.3,29.15,SSW,203,0.0,0.0,49,0.00,,,0.00,VWS V13.01,2013-10-07 22:35:00,
2013-10-07 17:36:00,68.0,48.2,29.15,SSW,203,0.0,0.0,49,0.00,,,0.00,VWS V13.01,2013-10-07 22:36:00,
2013-10-07 17:37:00,68.0,48.2,29.15,SSW,203,0.0,0.0,49,0.00,,,0.00,VWS V13.01,2013-10-07 22:37:00,
2013-10-07 17:38:00,67.8,48.0,29.15,WSW,239,0.0,0.0,49,0.00,,,0.00,VWS V13.01,2013-10-07 22:38:00,
2013-10-07 17:39:00,67.8,48.0,29.15,WNW,290,0.0,0.0,49,0.00,,,0.00,VWS V13.01,2013-10-07 22:39:00,
2013-10-07 17:40:00,67.6,47.8,29.15,WNW,290,0.0,0.0,49,0.00,,,0.00,VWS V13.01,2013-10-07 22:40:00,
2013-10-07 17:41:00,67.6,47.8,29.15,WNW,290,0.0,0.0,49,0.00,,,0.00,VWS V13.01,2013-10-07 22:41:00,
2013-10-07 17:42:00,67.3,47.5,29.15,South,190,0.0,0.0,49,0.00,,,0.00,VWS V13.01,2013-10-07 22:42:00,
2013-10-07 17:43:00,67.5,47.7,29.15,South,190,0.0,0.0,49,0.00,,,0.00,VWS V13.01,2013-10-07 22:43:00,
2013-10-07 17:44:00,67.6,47.8,29.15,South,188,0.0,0.0,49,0.00,,,0.00,VWS V13.01,2013-10-07 22:44:00,
2013-10-07 17:45:00,67.6,47.8,29.15,South,188,0.0,0.0,49,0.00,,,0.00,VWS V13.01,2013-10-07 22:45:00,
2013-10-07 17:46:00,67.6,47.8,29.15,South,188,0.0,0.0,49,0.00,,,0.00,VWS V13.01,2013-10-07 22:46:00,
2013-10-07 17:47:00,67.6,47.8,29.15,South,188,0.0,0.0,49,0.00,,,0.00,VWS V13.01,2013-10-07 22:47:00,
2013-10-07 17:48:00,67.6,47.8,29.15,South,188,0.0,0.0,49,0.00,,,0.00,VWS V13.01,2013-10-07 22:48:00,
2013-10-07 17:49:00,67.6,47.8,29.15,South,188,0.0,0.0,49,0.00,,,0.00,VWS V13.01,2013-10-07 22:49:00,
2013-10-07 17:50:00,67.5,47.7,29.15,South,188,0.0,0.0,49,0.00,,,0.00,VWS V13.01,2013-10-07 22:50:00,
2013-10-07 17:51:00,67.5,47.7,29.15,South,188,0.0,0.0,49,0.00,,,0.00,VWS V13.01,2013-10-07 22:51:00,
2013-10-07 17:52:00,67.3,47.5,29.15,South,188,0.0,0.0,49,0.00,,,0.00,VWS V13.01,2013-10-07 22:52:00,
2013-10-07 17:54:00,67.3,47.5,29.15,South,188,0.0,0.0,49,0.00,,,0.00,VWS V13.01,2013-10-07 22:54:00,
2013-10-07 17:56:00,67.1,47.3,29.15,South,188,0.0,0.0,49,0.00,,,0.00,VWS V13.01,2013-10-07 22:56:00,
2013-10-07 17:57:00,66.7,47.0,29.15,South,188,0.0,0.0,49,0.00,,,0.00,VWS V13.01,2013-10-07 22:57:00,
2013-10-07 17:59:00,66.7,47.0,29.15,South,188,0.0,0.0,49,0.00,,,0.00,VWS V13.01,2013-10-07 22:59:00,
2013-10-07 18:01:00,66.6,46.8,29.15,South,188,0.0,0.0,49,0.00,,,0.00,VWS V13.01,2013-10-07 23:01:00,
2013-10-07 18:02:00,66.4,46.7,29.15,South,188,0.0,0.0,49,0.00,,,0.00,VWS V13.01,2013-10-07 23:02:00,
2013-10-07 18:04:00,66.2,46.5,29.15,South,188,0.0,0.0,49,0.00,,,0.00,VWS V13.01,2013-10-07 23:04:00,
2013-10-07 18:06:00,66.0,49.4,29.15,South,188,0.0,0.0,55,0.00,,,0.00,VWS V13.01,2013-10-07 23:06:00,
2013-10-07 18:07:00,65.8,49.2,29.15,South,188,0.0,0.0,55,0.00,,,0.00,VWS V13.01,2013-10-07 23:07:00,
2013-10-07 18:09:00,65.7,49.1,29.15,South,188,0.0,0.0,55,0.00,,,0.00,VWS V13.01,2013-10-07 23:09:00,
2013-10-07 18:10:00,65.7,49.1,29.15,South,188,0.0,0.0,55,0.00,,,0.00,VWS V13.01,2013-10-07 23:10:00,
2013-10-07 18:11:00,65.5,48.9,29.15,South,188,0.0,0.0,55,0.00,,,0.00,VWS V13.01,2013-10-07 23:11:00,
2013-10-07 18:13:00,65.3,48.7,29.15,South,188,0.0,0.0,55,0.00,,,0.00,VWS V13.01,2013-10-07 23:13:00,
2013-10-07 18:14:00,65.1,48.6,29.15,South,188,0.0,0.0,55,0.00,,,0.00,VWS V13.01,2013-10-07 23:14:00,
2013-10-07 18:15:00,65.1,48.6,29.15,South,188,0.0,0.0,55,0.00,,,0.00,VWS V13.01,2013-10-07 23:15:00,
2013-10-07 18:16:00,64.9,48.4,29.15,South,188,0.0,0.0,55,0.00,,,0.00,VWS V13.01,2013-10-07 23:16:00,
2013-10-07 18:18:00,64.8,48.2,29.15,South,188,0.0,0.0,55,0.00,,,0.00,VWS V13.01,2013-10-07 23:18:00,
2013-10-07 18:19:00,64.4,47.9,29.15,South,188,0.0,0.0,55,0.00,,,0.00,VWS V13.01,2013-10-07 23:19:00,
2013-10-07 18:20:00,64.4,47.9,29.15,South,188,0.0,0.0,55,0.00,,,0.00,VWS V13.01,2013-10-07 23:20:00,
2013-10-07 18:21:00,64.4,47.9,29.15,South,188,0.0,0.0,55,0.00,,,0.00,VWS V13.01,2013-10-07 23:21:00,
2013-10-07 18:23:00,64.2,47.7,29.15,South,188,0.0,0.0,55,0.00,,,0.00,VWS V13.01,2013-10-07 23:23:00,
2013-10-07 18:24:00,63.9,47.4,29.15,South,188,0.0,0.0,55,0.00,,,0.00,VWS V13.01,2013-10-07 23:24:00,
2013-10-07 18:25:00,63.9,47.4,29.15,South,188,0.0,0.0,55,0.00,,,0.00,VWS V13.01,2013-10-07 23:25:00,
2013-10-07 18:26:00,63.9,47.4,29.15,South,188,0.0,0.0,55,0.00,,,0.00,VWS V13.01,2013-10-07 23:26:00,
2013-10-07 18:28:00,63.5,47.1,29.15,South,188,0.0,0.0,55,0.00,,,0.00,VWS V13.01,2013-10-07 23:28:00,
2013-10-07 18:29:00,63.5,47.1,29.15,South,188,0.0,0.0,55,0.00,,,0.00,VWS V13.01,2013-10-07 23:29:00,
2013-10-07 18:30:00,63.3,46.9,29.15,South,188,0.0,0.0,55,0.00,,,0.00,VWS V13.01,2013-10-07 23:30:00,
2013-10-07 18:31:00,63.1,46.7,29.15,South,188,0.0,0.0,55,0.00,,,0.00,VWS V13.01,2013-10-07 23:31:00,
2013-10-07 18:33:00,63.1,46.7,29.15,South,188,0.0,0.0,55,0.00,,,0.00,VWS V13.01,2013-10-07 23:33:00,
2013-10-07 18:34:00,63.0,46.6,29.15,South,188,0.0,0.0,55,0.00,,,0.00,VWS V13.01,2013-10-07 23:34:00,
2013-10-07 18:35:00,63.0,46.6,29.15,South,188,0.0,0.0,55,0.00,,,0.00,VWS V13.01,2013-10-07 23:35:00,
2013-10-07 18:36:00,62.8,46.4,29.15,South,188,0.0,0.0,55,0.00,,,0.00,VWS V13.01,2013-10-07 23:36:00,
2013-10-07 18:37:00,62.6,46.2,29.15,South,188,0.0,0.0,55,0.00,,,0.00,VWS V13.01,2013-10-07 23:37:00,
2013-10-07 18:38:00,62.4,48.8,29.15,South,188,0.0,0.0,61,0.00,,,0.00,VWS V13.01,2013-10-07 23:38:00,
2013-10-07 18:39:00,62.4,48.8,29.15,South,188,0.0,0.0,61,0.00,,,0.00,VWS V13.01,2013-10-07 23:39:00,
2013-10-07 18:40:00,62.2,48.6,29.15,South,188,0.0,0.0,61,0.00,,,0.00,VWS V13.01,2013-10-07 23:40:00,
2013-10-07 18:41:00,62.2,48.6,29.15,South,188,0.0,0.0,61,0.00,,,0.00,VWS V13.01,2013-10-07 23:41:00,
2013-10-07 18:42:00,62.1,48.5,29.15,South,188,0.0,0.0,61,0.00,,,0.00,VWS V13.01,2013-10-07 23:42:00,
2013-10-07 18:43:00,61.9,48.3,29.15,South,188,0.0,0.0,61,0.00,,,0.00,VWS V13.01,2013-10-07 23:43:00,
2013-10-07 18:44:00,61.9,48.3,29.15,South,188,0.0,0.0,61,0.00,,,0.00,VWS V13.01,2013-10-07 23:44:00,
2013-10-07 18:45:00,61.7,48.1,29.15,South,188,0.0,0.0,61,0.00,,,0.00,VWS V13.01,2013-10-07 23:45:00,
2013-10-07 18:46:00,61.7,48.1,29.15,South,188,0.0,0.0,61,0.00,,,0.00,VWS V13.01,2013-10-07 23:46:00,
2013-10-07 18:47:00,61.5,48.0,29.15,South,188,0.0,0.0,61,0.00,,,0.00,VWS V13.01,2013-10-07 23:47:00,
2013-10-07 18:48:00,61.5,48.0,29.15,South,188,0.0,0.0,61,0.00,,,0.00,VWS V13.01,2013-10-07 23:48:00,
2013-10-07 18:49:00,61.3,47.8,29.15,South,188,0.0,0.0,61,0.00,,,0.00,VWS V13.01,2013-10-07 23:49:00,
2013-10-07 18:50:00,61.2,47.6,29.15,South,188,0.0,0.0,61,0.00,,,0.00,VWS V13.01,2013-10-07 23:50:00,
2013-10-07 18:51:00,61.2,47.6,29.15,South,188,0.0,0.0,61,0.00,,,0.00,VWS V13.01,2013-10-07 23:51:00,
2013-10-07 18:52:00,61.0,47.5,29.15,South,188,0.0,0.0,61,0.00,,,0.00,VWS V13.01,2013-10-07 23:52:00,
2013-10-07 18:53:00,61.0,47.5,29.15,South,188,0.0,0.0,61,0.00,,,0.00,VWS V13.01,2013-10-07 23:53:00,
2013-10-07 18:54:00,60.8,47.3,29.15,South,188,0.0,0.0,61,0.00,,,0.00,VWS V13.01,2013-10-07 23:54:00,
2013-10-07 18:55:00,60.6,47.1,29.15,South,188,0.0,0.0,61,0.00,,,0.00,VWS V13.01,2013-10-07 23:55:00,
2013-10-07 18:56:00,60.6,47.1,29.15,South,188,0.0,0.0,61,0.00,,,0.00,VWS V13.01,2013-10-07 23:56:00,
2013-10-07 18:57:00,60.4,46.9,29.15,South,188,0.0,0.0,61,0.00,,,0.00,VWS V13.01,2013-10-07 23:57:00,
2013-10-07 18:58:00,60.4,46.9,29.15,South,188,0.0,0.0,61,0.00,,,0.00,VWS V13.01,2013-10-07 23:58:00,
2013-10-07 18:59:00,60.1,46.6,29.15,South,188,0.0,0.0,61,0.00,,,0.00,VWS V13.01,2013-10-07 23:59:00,
2013-10-07 19:00:00,60.1,46.6,29.15,South,188,0.0,0.0,61,0.00,,,0.00,VWS V13.01,2013-10-08 00:00:00,
2013-10-07 19:01:00,59.9,46.4,29.15,South,188,0.0,0.0,61,0.00,,,0.00,VWS V13.01,2013-10-08 00:01:00,
2013-10-07 19:02:00,59.9,46.4,29.15,South,188,0.0,0.0,61,0.00,,,0.00,VWS V13.01,2013-10-08 00:02:00,
2013-10-07 19:03:00,59.7,46.3,29.15,South,188,0.0,0.0,61,0.00,,,0.00,VWS V13.01,2013-10-08 00:03:00,
2013-10-07 19:04:00,59.9,46.4,29.15,South,188,0.0,0.0,61,0.00,,,0.00,VWS V13.01,2013-10-08 00:04:00,
2013-10-07 19:06:00,59.9,46.4,29.15,South,188,0.0,0.0,61,0.00,,,0.00,VWS V13.01,2013-10-08 00:06:00,
2013-10-07 19:07:00,59.9,46.4,29.15,South,188,0.0,0.0,61,0.00,,,0.00,VWS V13.01,2013-10-08 00:07:00,
2013-10-07 19:08:00,59.7,46.3,29.15,South,188,0.0,0.0,61,0.00,,,0.00,VWS V13.01,2013-10-08 00:08:00,
2013-10-07 19:09:00,59.7,46.3,29.15,South,188,0.0,0.0,61,0.00,,,0.00,VWS V13.01,2013-10-08 00:09:00,
2013-10-07 19:11:00,59.7,46.3,29.15,South,188,0.0,0.0,61,0.00,,,0.00,VWS V13.01,2013-10-08 00:11:00,
2013-10-07 19:12:00,59.5,46.1,29.15,South,188,0.0,0.0,61,0.00,,,0.00,VWS V13.01,2013-10-08 00:12:00,
2013-10-07 19:13:00,59.5,46.1,29.15,South,188,0.0,0.0,61,0.00,,,0.00,VWS V13.01,2013-10-08 00:13:00,
2013-10-07 19:14:00,59.4,45.9,29.15,South,188,0.0,0.0,61,0.00,,,0.00,VWS V13.01,2013-10-08 00:14:00,
2013-10-07 19:16:00,59.2,45.8,29.15,South,188,0.0,0.0,61,0.00,,,0.00,VWS V13.01,2013-10-08 00:16:00,
2013-10-07 19:17:00,59.0,45.6,29.15,South,188,0.0,0.0,61,0.00,,,0.00,VWS V13.01,2013-10-08 00:17:00,
2013-10-07 19:18:00,58.8,45.4,29.15,South,188,0.0,0.0,61,0.00,,,0.00,VWS V13.01,2013-10-08 00:18:00,
2013-10-07 19:19:00,58.6,45.2,29.15,South,188,0.0,0.0,61,0.00,,,0.00,VWS V13.01,2013-10-08 00:19:00,
2013-10-07 19:21:00,58.5,45.1,29.15,South,188,0.0,0.0,61,0.00,,,0.00,VWS V13.01,2013-10-08 00:21:00,
2013-10-07 19:22:00,58.5,45.1,29.15,South,188,0.0,0.0,61,0.00,,,0.00,VWS V13.01,2013-10-08 00:22:00,
2013-10-07 19:23:00,58.5,45.1,29.15,South,188,0.0,0.0,61,0.00,,,0.00,VWS V13.01,2013-10-08 00:23:00,
2013-10-07 19:25:00,58.3,44.9,29.15,South,188,0.0,0.0,61,0.00,,,0.00,VWS V13.01,2013-10-08 00:25:00,
2013-10-07 19:26:00,58.1,44.7,29.15,South,188,0.0,0.0,61,0.00,,,0.00,VWS V13.01,2013-10-08 00:26:00,
2013-10-07 19:27:00,58.1,44.7,29.15,South,188,0.0,0.0,61,0.00,,,0.00,VWS V13.01,2013-10-08 00:27:00,
2013-10-07 19:28:00,57.9,44.6,29.15,South,188,0.0,0.0,61,0.00,,,0.00,VWS V13.01,2013-10-08 00:28:00,
2013-10-07 19:30:00,58.1,44.7,29.15,South,188,0.0,0.0,61,0.00,,,0.00,VWS V13.01,2013-10-08 00:30:00,
2013-10-07 19:31:00,58.5,45.1,29.15,South,188,0.0,0.0,61,0.00,,,0.00,VWS V13.01,2013-10-08 00:31:00,
2013-10-07 19:32:00,58.5,45.1,29.15,South,188,0.0,0.0,61,0.00,,,0.00,VWS V13.01,2013-10-08 00:32:00,
2013-10-07 19:33:00,58.6,45.2,29.15,South,188,0.0,0.0,61,0.00,,,0.00,VWS V13.01,2013-10-08 00:33:00,
2013-10-07 19:34:00,58.8,45.4,29.15,South,188,0.0,0.0,61,0.00,,,0.00,VWS V13.01,2013-10-08 00:34:00,
2013-10-07 19:35:00,59.2,45.8,29.15,South,188,0.0,0.0,61,0.00,,,0.00,VWS V13.01,2013-10-08 00:35:00,
2013-10-07 19:37:00,59.4,45.9,29.15,South,188,0.0,0.0,61,0.00,,,0.00,VWS V13.01,2013-10-08 00:37:00,
2013-10-07 19:38:00,59.7,46.3,29.15,South,188,0.0,0.0,61,0.00,,,0.00,VWS V13.01,2013-10-08 00:38:00,
2013-10-07 19:39:00,59.7,46.3,29.15,South,188,0.0,0.0,61,0.00,,,0.00,VWS V13.01,2013-10-08 00:39:00,
2013-10-07 19:40:00,60.1,46.6,29.15,South,188,0.0,0.0,61,0.00,,,0.00,VWS V13.01,2013-10-08 00:40:00,
2013-10-07 19:42:00,60.1,46.6,29.15,South,188,0.0,0.0,61,0.00,,,0.00,VWS V13.01,2013-10-08 00:42:00,
2013-10-07 19:43:00,60.3,46.8,29.15,South,188,0.0,0.0,61,0.00,,,0.00,VWS V13.01,2013-10-08 00:43:00,
2013-10-07 19:44:00,60.4,46.9,29.15,South,188,0.0,0.0,61,0.00,,,0.00,VWS V13.01,2013-10-08 00:44:00,
2013-10-07 19:45:00,60.4,46.9,29.15,South,188,0.0,0.0,61,0.00,,,0.00,VWS V13.01,2013-10-08 00:45:00,
2013-10-07 19:47:00,60.4,46.9,29.15,South,188,0.0,0.0,61,0.00,,,0.00,VWS V13.01,2013-10-08 00:47:00,
2013-10-07 19:49:00,60.4,46.9,29.15,South,188,0.0,0.0,61,0.00,,,0.00,VWS V13.01,2013-10-08 00:49:00,
2013-10-07 19:50:00,60.6,47.1,29.15,South,188,0.0,0.0,61,0.00,,,0.00,VWS V13.01,2013-10-08 00:50:00,
2013-10-07 19:52:00,60.8,47.3,29.15,South,188,0.0,0.0,61,0.00,,,0.00,VWS V13.01,2013-10-08 00:52:00,
2013-10-07 19:54:00,60.6,47.1,29.15,South,188,0.0,0.0,61,0.00,,,0.00,VWS V13.01,2013-10-08 00:54:00,
2013-10-07 19:55:00,60.4,46.9,29.18,South,188,0.0,0.0,61,0.00,,,0.00,VWS V13.01,2013-10-08 00:55:00,
2013-10-07 19:57:00,60.3,46.8,29.18,South,188,0.0,0.0,61,0.00,,,0.00,VWS V13.01,2013-10-08 00:57:00,
2013-10-07 19:59:00,59.9,46.4,29.18,South,188,0.0,0.0,61,0.00,,,0.00,VWS V13.01,2013-10-08 00:59:00,
2013-10-07 20:01:00,59.7,46.3,29.18,South,188,0.0,0.0,61,0.00,,,0.00,VWS V13.01,2013-10-08 01:01:00,
2013-10-07 20:02:00,59.7,46.3,29.18,South,188,0.0,0.0,61,0.00,,,0.00,VWS V13.01,2013-10-08 01:02:00,
2013-10-07 20:04:00,59.5,46.1,29.18,South,188,0.0,0.0,61,0.00,,,0.00,VWS V13.01,2013-10-08 01:04:00,
2013-10-07 20:06:00,59.4,45.9,29.18,South,188,0.0,0.0,61,0.00,,,0.00,VWS V13.01,2013-10-08 01:06:00,
2013-10-07 20:07:00,59.2,45.8,29.18,South,188,0.0,0.0,61,0.00,,,0.00,VWS V13.01,2013-10-08 01:07:00,
2013-10-07 20:08:00,59.2,45.8,29.18,South,188,0.0,0.0,61,0.00,,,0.00,VWS V13.01,2013-10-08 01:08:00,
2013-10-07 20:09:00,59.2,45.8,29.18,South,188,0.0,0.0,61,0.00,,,0.00,VWS V13.01,2013-10-08 01:09:00,
2013-10-07 20:11:00,58.8,45.4,29.18,South,188,0.0,0.0,61,0.00,,,0.00,VWS V13.01,2013-10-08 01:11:00,
2013-10-07 20:12:00,58.8,45.4,29.18,South,188,0.0,0.0,61,0.00,,,0.00,VWS V13.01,2013-10-08 01:12:00,
2013-10-07 20:13:00,58.8,45.4,29.18,South,188,0.0,0.0,61,0.00,,,0.00,VWS V13.01,2013-10-08 01:13:00,
2013-10-07 20:14:00,58.8,45.4,29.18,South,188,0.0,0.0,61,0.00,,,0.00,VWS V13.01,2013-10-08 01:14:00,
2013-10-07 20:16:00,59.0,45.6,29.18,South,188,0.0,0.0,61,0.00,,,0.00,VWS V13.01,2013-10-08 01:16:00,
2013-10-07 20:17:00,58.8,45.4,29.18,South,188,0.0,0.0,61,0.00,,,0.00,VWS V13.01,2013-10-08 01:17:00,
2013-10-07 20:18:00,58.8,45.4,29.18,South,188,0.0,0.0,61,0.00,,,0.00,VWS V13.01,2013-10-08 01:18:00,
2013-10-07 20:19:00,58.8,45.4,29.18,South,188,0.0,0.0,61,0.00,,,0.00,VWS V13.01,2013-10-08 01:19:00,
2013-10-07 20:21:00,58.8,45.4,29.18,South,188,0.0,0.0,61,0.00,,,0.00,VWS V13.01,2013-10-08 01:21:00,
2013-10-07 20:23:00,58.8,45.4,29.18,South,188,0.0,0.0,61,0.00,,,0.00,VWS V13.01,2013-10-08 01:23:00,
2013-10-07 20:24:00,58.8,45.4,29.15,South,188,0.0,0.0,61,0.00,,,0.00,VWS V13.01,2013-10-08 01:24:00,
2013-10-07 20:26:00,59.0,45.6,29.15,South,188,0.0,0.0,61,0.00,,,0.00,VWS V13.01,2013-10-08 01:26:00,
2013-10-07 20:28:00,59.0,45.6,29.15,South,188,0.0,0.0,61,0.00,,,0.00,VWS V13.01,2013-10-08 01:28:00,
2013-10-07 20:29:00,59.0,45.6,29.15,South,188,0.0,0.0,61,0.00,,,0.00,VWS V13.01,2013-10-08 01:29:00,
2013-10-07 20:30:00,59.0,45.6,29.15,South,188,0.0,0.0,61,0.00,,,0.00,VWS V13.01,2013-10-08 01:30:00,
2013-10-07 20:31:00,58.8,45.4,29.15,South,188,0.0,0.0,61,0.00,,,0.00,VWS V13.01,2013-10-08 01:31:00,
2013-10-07 20:33:00,58.8,45.4,29.15,South,188,0.0,0.0,61,0.00,,,0.00,VWS V13.01,2013-10-08 01:33:00,
2013-10-07 20:34:00,58.8,45.4,29.15,South,188,0.0,0.0,61,0.00,,,0.00,VWS V13.01,2013-10-08 01:34:00,
2013-10-07 20:35:00,58.8,45.4,29.15,South,188,0.0,0.0,61,0.00,,,0.00,VWS V13.01,2013-10-08 01:35:00,
2013-10-07 20:36:00,58.8,45.4,29.15,South,188,0.0,0.0,61,0.00,,,0.00,VWS V13.01,2013-10-08 01:36:00,
2013-10-07 20:38:00,58.8,45.4,29.15,South,188,0.0,0.0,61,0.00,,,0.00,VWS V13.01,2013-10-08 01:38:00,
2013-10-07 20:39:00,58.8,45.4,29.15,South,188,0.0,0.0,61,0.00,,,0.00,VWS V13.01,2013-10-08 01:39:00,
2013-10-07 20:40:00,58.8,45.4,29.18,South,188,0.0,0.0,61,0.00,,,0.00,VWS V13.01,2013-10-08 01:40:00,
2013-10-07 20:41:00,58.6,45.2,29.18,South,188,0.0,0.0,61,0.00,,,0.00,VWS V13.01,2013-10-08 01:41:00,
2013-10-07 20:43:00,58.5,45.1,29.18,South,188,0.0,0.0,61,0.00,,,0.00,VWS V13.01,2013-10-08 01:43:00,
2013-10-07 20:44:00,58.5,45.1,29.18,South,188,0.0,0.0,61,0.00,,,0.00,VWS V13.01,2013-10-08 01:44:00,
2013-10-07 20:45:00,58.5,45.1,29.18,South,188,0.0,0.0,61,0.00,,,0.00,VWS V13.01,2013-10-08 01:45:00,
2013-10-07 20:46:00,58.5,45.1,29.18,South,188,0.0,0.0,61,0.00,,,0.00,VWS V13.01,2013-10-08 01:46:00,
2013-10-07 20:48:00,58.5,45.1,29.18,South,188,3.6,3.6,61,0.00,,,0.00,VWS V13.01,2013-10-08 01:48:00,
2013-10-07 20:49:00,58.5,45.1,29.18,South,188,3.6,3.6,61,0.00,,,0.00,VWS V13.01,2013-10-08 01:49:00,
2013-10-07 20:50:00,58.5,45.1,29.18,South,188,4.0,4.0,61,0.00,,,0.00,VWS V13.01,2013-10-08 01:50:00,
2013-10-07 20:51:00,58.3,44.9,29.18,South,188,3.6,3.6,61,0.00,,,0.00,VWS V13.01,2013-10-08 01:51:00,
2013-10-07 20:53:00,58.1,44.7,29.18,South,188,3.6,3.6,61,0.00,,,0.00,VWS V13.01,2013-10-08 01:53:00,
2013-10-07 20:54:00,58.1,44.7,29.18,South,188,3.6,3.6,61,0.00,,,0.00,VWS V13.01,2013-10-08 01:54:00,
2013-10-07 20:55:00,58.1,44.7,29.18,South,188,3.1,3.1,61,0.00,,,0.00,VWS V13.01,2013-10-08 01:55:00,
2013-10-07 20:56:00,58.3,44.9,29.18,South,188,3.6,3.6,61,0.00,,,0.00,VWS V13.01,2013-10-08 01:56:00,
2013-10-07 20:58:00,58.1,44.7,29.18,South,188,3.1,3.1,61,0.00,,,0.00,VWS V13.01,2013-10-08 01:58:00,
2013-10-07 20:59:00,58.1,44.7,29.18,South,188,3.6,3.6,61,0.00,,,0.00,VWS V13.01,2013-10-08 01:59:00,
2013-10-07 21:00:00,58.1,44.7,29.18,South,188,3.6,3.6,61,0.00,,,0.00,VWS V13.01,2013-10-08 02:00:00,
2013-10-07 21:01:00,58.1,44.7,29.18,South,188,3.6,3.6,61,0.00,,,0.00,VWS V13.01,2013-10-08 02:01:00,
2013-10-07 21:03:00,58.1,44.7,29.18,South,188,3.1,3.1,61,0.00,,,0.00,VWS V13.01,2013-10-08 02:03:00,
2013-10-07 21:04:00,58.1,44.7,29.18,South,188,3.6,3.6,61,0.00,,,0.00,VWS V13.01,2013-10-08 02:04:00,
2013-10-07 21:05:00,57.9,44.6,29.18,South,188,3.6,3.6,61,0.00,,,0.00,VWS V13.01,2013-10-08 02:05:00,
2013-10-07 21:06:00,57.9,44.6,29.18,South,188,3.6,3.6,61,0.00,,,0.00,VWS V13.01,2013-10-08 02:06:00,
2013-10-07 21:08:00,58.1,44.7,29.18,South,188,5.4,5.4,61,0.00,,,0.00,VWS V13.01,2013-10-08 02:08:00,
2013-10-07 21:09:00,58.3,44.9,29.18,South,188,4.9,4.9,61,0.00,,,0.00,VWS V13.01,2013-10-08 02:09:00,
2013-10-07 21:10:00,58.3,44.9,29.18,South,188,4.9,4.9,61,0.00,,,0.00,VWS V13.01,2013-10-08 02:10:00,
2013-10-07 21:11:00,58.3,44.9,29.18,South,188,4.0,4.0,61,0.00,,,0.00,VWS V13.01,2013-10-08 02:11:00,
2013-10-07 21:14:00,58.3,44.9,29.18,South,189,3.6,3.6,61,0.00,,,0.00,VWS V13.01,2013-10-08 02:14:00,
2013-10-07 21:15:00,58.1,44.7,29.18,South,189,4.0,4.0,61,0.00,,,0.00,VWS V13.01,2013-10-08 02:15:00,
2013-10-07 21:16:00,57.9,44.6,29.18,South,189,4.9,4.9,61,0.00,,,0.00,VWS V13.01,2013-10-08 02:16:00,
2013-10-07 21:19:00,57.9,44.6,29.18,South,189,3.6,3.6,61,0.00,,,0.00,VWS V13.01,2013-10-08 02:19:00,
2013-10-07 21:20:00,57.7,44.4,29.18,South,189,3.6,3.6,61,0.00,,,0.00,VWS V13.01,2013-10-08 02:20:00,
2013-10-07 21:21:00,57.6,44.2,29.18,South,189,3.1,3.1,61,0.00,,,0.00,VWS V13.01,2013-10-08 02:21:00,
2013-10-07 21:24:00,57.6,44.2,29.18,South,189,4.0,4.0,61,0.00,,,0.00,VWS V13.01,2013-10-08 02:24:00,
2013-10-07 21:25:00,57.6,44.2,29.18,South,189,3.6,3.6,61,0.00,,,0.00,VWS V13.01,2013-10-08 02:25:00,
2013-10-07 21:26:00,57.6,44.2,29.18,South,189,3.6,3.6,61,0.00,,,0.00,VWS V13.01,2013-10-08 02:26:00,
2013-10-07 21:29:00,57.6,44.2,29.18,South,189,3.1,3.1,61,0.00,,,0.00,VWS V13.01,2013-10-08 02:29:00,
2013-10-07 21:30:00,57.4,44.1,29.18,South,189,3.1,3.1,61,0.00,,,0.00,VWS V13.01,2013-10-08 02:30:00,
2013-10-07 21:31:00,57.4,44.1,29.18,South,189,4.0,4.0,61,0.00,,,0.00,VWS V13.01,2013-10-08 02:31:00,
2013-10-07 21:34:00,57.6,44.2,29.18,South,189,4.0,4.0,61,0.00,,,0.00,VWS V13.01,2013-10-08 02:34:00,
2013-10-07 21:35:00,57.4,44.1,29.18,South,189,4.0,4.0,61,0.00,,,0.00,VWS V13.01,2013-10-08 02:35:00,
2013-10-07 21:36:00,57.4,44.1,29.18,South,189,4.0,4.0,61,0.00,,,0.00,VWS V13.01,2013-10-08 02:36:00,
2013-10-07 21:40:00,57.2,43.9,29.18,South,189,3.1,3.1,61,0.00,,,0.00,VWS V13.01,2013-10-08 02:40:00,
2013-10-07 21:41:00,56.8,46.0,29.18,South,189,3.1,3.1,67,0.00,,,0.00,VWS V13.01,2013-10-08 02:41:00,
2013-10-07 21:45:00,56.7,45.8,29.18,South,189,3.1,3.1,67,0.00,,,0.00,VWS V13.01,2013-10-08 02:45:00,
2013-10-07 21:46:00,56.7,45.8,29.18,South,189,3.1,3.1,67,0.00,,,0.00,VWS V13.01,2013-10-08 02:46:00,
2013-10-07 21:50:00,56.5,45.7,29.18,South,189,3.1,3.1,67,0.00,,,0.00,VWS V13.01,2013-10-08 02:50:00,
2013-10-07 21:51:00,56.3,45.5,29.18,South,189,3.6,3.6,67,0.00,,,0.00,VWS V13.01,2013-10-08 02:51:00,
2013-10-07 21:55:00,56.3,45.5,29.18,South,189,3.6,3.6,67,0.00,,,0.00,VWS V13.01,2013-10-08 02:55:00,
2013-10-07 21:56:00,56.3,45.5,29.18,South,189,3.6,3.6,67,0.00,,,0.00,VWS V13.01,2013-10-08 02:56:00,
2013-10-07 22:00:00,55.9,45.2,29.18,South,189,3.1,3.1,67,0.00,,,0.00,VWS V13.01,2013-10-08 03:00:00,
2013-10-07 22:01:00,55.9,45.2,29.18,South,189,3.1,3.1,67,0.00,,,0.00,VWS V13.01,2013-10-08 03:01:00,
2013-10-07 22:05:00,55.8,45.0,29.18,South,189,3.1,3.1,67,0.00,,,0.00,VWS V13.01,2013-10-08 03:05:00,
2013-10-07 22:06:00,55.6,44.8,29.18,South,189,4.0,4.0,67,0.00,,,0.00,VWS V13.01,2013-10-08 03:06:00,
2013-10-07 22:10:00,55.4,44.6,29.18,South,189,3.1,3.1,67,0.00,,,0.00,VWS V13.01,2013-10-08 03:10:00,
2013-10-07 22:11:00,55.2,44.5,29.18,South,189,2.7,2.7,67,0.00,,,0.00,VWS V13.01,2013-10-08 03:11:00,
2013-10-07 22:15:00,55.0,44.3,29.18,South,189,3.6,3.6,67,0.00,,,0.00,VWS V13.01,2013-10-08 03:15:00,
2013-10-07 22:16:00,55.0,44.3,29.18,South,189,3.6,3.6,67,0.00,,,0.00,VWS V13.01,2013-10-08 03:16:00,
2013-10-07 22:20:00,54.9,44.1,29.18,South,189,4.0,4.0,67,0.00,,,0.00,VWS V13.01,2013-10-08 03:20:00,
2013-10-07 22:21:00,54.9,44.1,29.18,South,189,3.1,3.1,67,0.00,,,0.00,VWS V13.01,2013-10-08 03:21:00,
2013-10-07 22:22:00,54.9,44.1,29.18,South,189,3.1,3.1,67,0.00,,,0.00,VWS V13.01,2013-10-08 03:22:00,
2013-10-07 22:25:00,54.7,44.0,29.18,South,189,3.1,3.1,67,0.00,,,0.00,VWS V13.01,2013-10-08 03:25:00,
2013-10-07 22:26:00,54.7,44.0,29.18,South,189,3.6,3.6,67,0.00,,,0.00,VWS V13.01,2013-10-08 03:26:00,
2013-10-07 22:27:00,54.5,43.8,29.18,South,189,3.1,3.1,67,0.00,,,0.00,VWS V13.01,2013-10-08 03:27:00,
2013-10-07 22:31:00,54.5,43.8,29.18,South,189,3.1,3.1,67,0.00,,,0.00,VWS V13.01,2013-10-08 03:31:00,
2013-10-07 22:32:00,54.5,43.8,29.18,South,189,3.6,3.6,67,0.00,,,0.00,VWS V13.01,2013-10-08 03:32:00,
2013-10-07 22:36:00,54.5,43.8,29.18,South,189,3.6,3.6,67,0.00,,,0.00,VWS V13.01,2013-10-08 03:36:00,
2013-10-07 22:37:00,54.5,43.8,29.18,South,189,3.6,3.6,67,0.00,,,0.00,VWS V13.01,2013-10-08 03:37:00,
2013-10-07 22:41:00,54.5,43.8,29.18,South,189,3.1,3.1,67,0.00,,,0.00,VWS V13.01,2013-10-08 03:41:00,
2013-10-07 22:42:00,54.5,43.8,29.18,South,189,3.6,3.6,67,0.00,,,0.00,VWS V13.01,2013-10-08 03:42:00,
2013-10-07 22:46:00,54.1,43.4,29.18,South,189,3.6,3.6,67,0.00,,,0.00,VWS V13.01,2013-10-08 03:46:00,
2013-10-07 22:47:00,54.3,43.6,29.18,South,189,3.1,3.1,67,0.00,,,0.00,VWS V13.01,2013-10-08 03:47:00,
2013-10-07 22:48:00,54.3,43.6,29.18,South,189,3.1,3.1,67,0.00,,,0.00,VWS V13.01,2013-10-08 03:48:00,
2013-10-07 22:51:00,54.3,43.6,29.18,South,189,3.6,3.6,67,0.00,,,0.00,VWS V13.01,2013-10-08 03:51:00,
2013-10-07 22:52:00,54.3,43.6,29.18,South,189,3.1,3.1,67,0.00,,,0.00,VWS V13.01,2013-10-08 03:52:00,
2013-10-07 22:53:00,54.3,43.6,29.18,South,189,4.0,4.0,67,0.00,,,0.00,VWS V13.01,2013-10-08 03:53:00,
2013-10-07 22:56:00,54.3,43.6,29.18,South,189,3.1,3.1,67,0.00,,,0.00,VWS V13.01,2013-10-08 03:56:00,
2013-10-07 22:57:00,54.3,43.6,29.18,South,189,3.6,3.6,67,0.00,,,0.00,VWS V13.01,2013-10-08 03:57:00,
2013-10-07 22:58:00,54.3,43.6,29.18,South,189,3.6,3.6,67,0.00,,,0.00,VWS V13.01,2013-10-08 03:58:00,
2013-10-07 23:01:00,54.1,43.4,29.18,South,189,3.6,3.6,67,0.00,,,0.00,VWS V13.01,2013-10-08 04:01:00,
2013-10-07 23:06:00,54.0,43.3,29.18,South,189,4.0,4.0,67,0.00,,,0.00,VWS V13.01,2013-10-08 04:06:00,
2013-10-07 23:07:00,54.0,43.3,29.18,South,189,3.6,3.6,67,0.00,,,0.00,VWS V13.01,2013-10-08 04:07:00,
2013-10-07 23:11:00,53.8,43.1,29.18,South,189,3.6,3.6,67,0.00,,,0.00,VWS V13.01,2013-10-08 04:11:00,
2013-10-07 23:12:00,53.8,43.1,29.18,South,189,4.0,4.0,67,0.00,,,0.00,VWS V13.01,2013-10-08 04:12:00,
2013-10-07 23:16:00,53.6,42.9,29.18,South,189,3.6,3.6,67,0.00,,,0.00,VWS V13.01,2013-10-08 04:16:00,
2013-10-07 23:17:00,53.4,45.0,29.18,South,189,3.6,3.6,73,0.00,,,0.00,VWS V13.01,2013-10-08 04:17:00,
2013-10-07 23:21:00,53.2,44.8,29.18,South,189,3.1,3.1,73,0.00,,,0.00,VWS V13.01,2013-10-08 04:21:00,
2013-10-07 23:22:00,53.4,45.0,29.18,South,189,3.6,3.6,73,0.00,,,0.00,VWS V13.01,2013-10-08 04:22:00,
2013-10-07 23:26:00,53.2,44.8,29.18,South,189,3.6,3.6,73,0.00,,,0.00,VWS V13.01,2013-10-08 04:26:00,
2013-10-07 23:27:00,53.2,44.8,29.18,South,189,3.6,3.6,73,0.00,,,0.00,VWS V13.01,2013-10-08 04:27:00,
2013-10-07 23:31:00,53.2,44.8,29.18,South,189,4.0,4.0,73,0.00,,,0.00,VWS V13.01,2013-10-08 04:31:00,
2013-10-07 23:32:00,53.4,45.0,29.18,South,189,4.0,4.0,73,0.00,,,0.00,VWS V13.01,2013-10-08 04:32:00,
2013-10-07 23:36:00,53.4,45.0,29.18,South,189,4.9,4.9,73,0.00,,,0.00,VWS V13.01,2013-10-08 04:36:00,
2013-10-07 23:37:00,53.4,45.0,29.18,South,189,3.6,3.6,73,0.00,,,0.00,VWS V13.01,2013-10-08 04:37:00,
2013-10-07 23:41:00,53.2,44.8,29.18,South,189,4.9,4.9,73,0.00,,,0.00,VWS V13.01,2013-10-08 04:41:00,
2013-10-07 23:42:00,53.2,44.8,29.18,South,189,5.4,5.4,73,0.00,,,0.00,VWS V13.01,2013-10-08 04:42:00,
2013-10-07 23:43:00,53.2,44.8,29.18,South,189,4.0,4.0,73,0.00,,,0.00,VWS V13.01,2013-10-08 04:43:00,
2013-10-07 23:46:00,53.4,45.0,29.18,South,189,4.9,4.9,73,0.00,,,0.00,VWS V13.01,2013-10-08 04:46:00,
2013-10-07 23:47:00,53.4,45.0,29.18,South,189,4.0,4.0,73,0.00,,,0.00,VWS V13.01,2013-10-08 04:47:00,
2013-10-07 23:48:00,53.4,45.0,29.18,South,189,4.0,4.0,73,0.00,,,0.00,VWS V13.01,2013-10-08 04:48:00,
2013-10-07 23:51:00,53.2,44.8,29.18,South,189,3.6,3.6,73,0.00,,,0.00,VWS V13.01,2013-10-08 04:51:00,
2013-10-07 23:52:00,53.2,44.8,29.18,South,189,4.9,4.9,73,0.00,,,0.00,VWS V13.01,2013-10-08 04:52:00,
2013-10-07 23:53:00,53.4,45.0,29.18,South,189,4.9,4.9,73,0.00,,,0.00,VWS V13.01,2013-10-08 04:53:00,
2013-10-07 23:56:00,53.2,44.8,29.18,South,189,4.0,4.0,73,0.00,,,0.00,VWS V13.01,2013-10-08 04:56:00,
2013-10-07 23:57:00,53.4,45.0,29.18,South,189,5.4,5.4,73,0.00,,,0.00,VWS V13.01,2013-10-08 04:57:00,
2013-10-07 23:58:00,53.4,45.0,29.18,South,189,4.9,4.9,73,0.00,,,0.00,VWS V13.01,2013-10-08 04:58:00,